GFSNE_850_thetae_000.txt.gz
Theta_e
294 295 294 293 291 291 292 292 293 296 296 298 298 298 297 296 296 296 296 297 297 296 297 298 297 299 299 299 299 300 300 299 299 300 301 310 314 316
292 292 292 292 293 293 293 292 292 293 293 293 293 294 294 294 294 293 294 294 294 293 291 295 297 297 298 295 296 296 297 298 297 297 298 301 308 311
292 292 291 291 291 291 291 291 291 291 291 292 292 292 292 293 293 293 293 293 294 294 292 291 292 295 296 297 296 296 296 296 297 297 297 297 299 303
291 291 290 289 289 289 290 290 290 290 290 291 291 291 292 292 292 292 293 293 293 293 292 292 292 291 292 294 295 297 297 296 296 296 296 297 296 296
290 289 289 289 289 289 289 289 289 289 289 289 290 290 290 291 291 291 292 292 292 292 292 292 292 292 290 289 291 293 294 296 296 296 296 296 296 296
288 288 287 287 287 287 287 287 287 287 287 288 288 288 289 289 289 290 290 291 291 291 291 290 291 291 291 291 289 289 291 293 295 295 296 296 296 296
287 287 287 286 285 285 284 285 286 286 287 288 288 289 289 289 289 290 290 290 290 291 291 291 291 291 291 290 289 289 289 290 293 295 295 295 294 295
286 286 286 285 285 284 283 283 283 285 286 287 287 287 288 288 288 288 288 288 288 289 290 290 290 291 291 291 291 291 291 290 290 291 294 295 294 294
285 285 285 284 283 284 284 284 283 282 282 283 284 285 286 286 287 287 287 287 287 288 288 289 289 290 290 291 290 290 290 291 290 290 290 292 294 295
284 284 283 283 284 284 283 283 283 284 284 284 284 284 285 285 286 286 286 287 287 287 287 287 287 287 287 288 289 290 290 289 289 289 289 291 294 295
283 283 283 282 282 282 282 282 283 284 284 284 284 283 283 283 284 285 285 286 286 286 287 287 287 287 287 287 287 288 289 289 289 291 292 292 293 295
281 281 282 282 282 282 282 282 282 283 284 284 284 285 285 284 284 284 285 285 286 286 286 286 287 287 287 287 288 287 288 287 287 288 291 292 295 295
281 282 283 283 282 282 281 281 281 281 281 282 282 283 284 285 285 286 285 285 285 286 286 286 287 287 287 288 288 288 288 289 288 288 288 292 293 293
280 281 283 282 281 281 280 280 280 281 281 282 282 283 284 285 286 286 286 285 285 285 286 286 286 287 287 288 289 288 289 288 288 288 288 290 292 291
280 281 280 280 280 279 279 280 281 281 281 281 282 283 284 285 285 286 285 285 285 286 286 286 286 286 287 287 288 289 289 289 288 287 290 289 290 292
279 280 279 279 279 279 279 279 279 280 281 281 282 283 284 285 286 286 285 286 286 285 285 285 285 285 285 286 287 288 288 288 288 288 288 290 291 291
278 278 278 278 278 279 278 278 279 279 280 280 281 282 283 284 286 286 286 286 286 286 286 285 285 285 285 285 286 287 288 288 288 288 288 288 289 289
277 278 277 278 277 278 278 278 278 278 279 280 281 282 282 284 285 286 285 285 286 287 287 287 286 286 286 286 286 286 287 288 288 288 288 287 288 289
277 277 277 277 276 277 277 277 277 277 278 279 280 281 283 283 284 285 286 286 286 286 287 287 286 286 288 288 288 287 286 287 287 288 288 287 287 288
277 276 276 275 275 275 275 275 276 277 277 278 278 279 282 282 283 283 284 285 286 286 286 286 286 286 287 288 288 286 286 286 286 286 287 286 286 287
276 275 274 274 274 274 274 275 276 276 276 277 277 278 280 280 281 282 283 284 284 285 285 284 285 285 285 285 285 285 285 285 285 285 285 285 285 285
273 273 273 273 273 273 274 274 276 276 276 276 277 278 279 279 280 281 281 282 282 283 283 282 283 283 283 284 285 284 282 283 283 283 283 284 284 286
272 272 272 273 273 273 273 274 275 275 275 277 277 277 278 279 279 280 280 281 281 281 282 282 282 282 282 282 283 282 282 281 281 281 282 283 283 283

GFSNE_850_thetae_003.txt.gz
Theta_e
295 295 294 294 294 294 294 294 294 295 297 298 298 299 299 299 299 298 298 298 297 296 297 299 298 298 299 299 300 300 301 301 301 301 301 301 302 311
295 294 294 294 294 294 294 294 295 294 294 295 294 295 296 296 297 297 297 296 296 296 295 296 297 297 297 299 299 299 300 300 300 300 299 299 299 299
294 294 294 293 293 292 292 292 292 293 293 293 293 294 294 294 294 295 295 295 295 294 294 294 293 293 295 296 297 296 297 297 298 298 298 298 298 298
292 292 292 292 292 291 291 291 291 291 291 291 292 292 293 293 294 294 294 295 294 294 294 293 293 292 291 291 294 295 296 296 296 297 297 297 296 296
290 290 290 290 290 290 290 290 290 290 290 290 290 291 291 292 292 293 293 293 293 293 293 293 292 292 292 292 290 291 292 294 296 296 296 296 297 296
289 289 289 289 289 289 289 289 289 289 289 289 289 289 290 290 290 291 291 292 292 292 292 292 292 292 292 291 291 290 289 290 292 294 295 296 297 297
288 288 288 288 288 287 287 286 286 286 287 287 288 289 290 290 290 291 291 291 291 292 292 292 292 292 292 291 291 290 290 289 288 291 293 294 296 296
286 286 287 287 287 286 285 285 284 284 285 285 287 288 288 289 289 290 290 290 290 290 290 290 291 291 292 292 293 293 292 292 291 289 289 292 294 296
284 285 286 286 286 285 285 285 285 285 284 284 284 285 286 287 287 288 288 289 289 289 289 289 290 290 290 291 291 291 291 292 292 291 291 289 290 292
283 284 284 285 285 284 284 284 284 284 284 284 284 284 284 285 286 286 286 287 287 288 288 288 288 289 288 289 289 289 290 291 290 290 291 291 291 290
282 282 283 283 283 282 282 282 283 283 284 284 284 284 284 284 284 285 285 286 286 287 287 287 287 287 288 287 287 287 287 288 289 290 290 290 290 289
281 281 281 282 282 282 282 282 282 283 284 283 284 285 285 285 285 283 283 284 285 286 286 287 287 287 288 288 287 287 287 287 288 288 289 289 291 292
280 281 282 283 283 282 282 282 281 281 281 281 282 283 283 284 285 285 285 285 285 285 286 286 287 287 287 287 287 287 289 289 289 289 289 289 289 290
279 281 282 282 281 281 281 280 280 280 281 282 282 283 284 284 284 285 286 286 286 286 286 286 286 286 287 288 288 288 288 288 289 289 289 289 289 288
279 280 280 280 280 280 280 279 280 281 281 282 282 283 284 285 285 286 286 286 286 286 286 285 286 286 287 287 288 288 289 289 289 289 288 288 289 289
278 279 279 279 279 280 280 280 280 281 281 281 282 282 283 285 286 286 287 286 286 286 286 286 286 286 286 286 286 287 287 288 289 288 288 288 290 290
278 278 278 278 279 279 279 279 279 280 280 281 281 282 283 284 285 286 286 286 286 287 287 287 286 286 285 285 286 286 287 287 288 288 289 288 288 289
277 277 277 277 278 278 278 278 279 279 279 280 281 281 282 283 285 286 286 286 287 287 287 287 287 286 286 285 285 286 286 287 287 288 289 288 288 289
277 276 276 276 277 278 277 277 278 278 278 279 280 281 281 282 284 285 286 286 287 287 288 288 287 287 287 287 287 286 286 286 286 287 287 289 289 288
276 275 275 275 276 276 276 277 277 278 278 279 279 280 280 282 283 283 284 285 285 286 287 287 287 287 287 288 287 287 287 286 286 286 287 287 288 287
274 275 275 275 275 275 275 276 277 277 277 278 279 279 280 281 281 282 282 283 284 285 285 285 285 285 285 286 286 286 286 285 285 284 285 286 286 285
273 274 274 274 274 274 275 275 276 277 276 277 278 279 280 280 281 281 281 282 282 283 283 283 283 283 284 284 285 285 284 284 283 283 283 284 285 286
273 273 273 273 273 273 274 274 275 275 276 276 276 278 279 279 280 280 280 281 281 282 282 283 283 283 283 283 283 284 283 282 282 283 282 282 283 283

GFSNE_850_thetae_006.txt.gz
Theta_e
296 295 295 295 293 294 294 294 295 295 294 294 296 296 296 299 299 299 299 298 298 298 298 296 299 300 299 299 298 298 300 301 301 301 301 302 303 304
294 294 295 294 294 294 294 294 293 293 293 294 294 294 294 295 296 297 298 298 298 297 297 297 296 297 298 298 299 299 299 300 300 301 301 300 300 300
292 293 293 293 293 293 293 293 292 292 293 292 293 293 293 293 295 295 295 295 296 295 295 295 295 295 296 297 297 298 298 298 298 298 298 299 299 299
291 291 291 291 290 290 290 290 291 291 291 291 291 291 291 291 292 293 293 295 295 295 295 295 295 294 293 293 293 295 297 296 296 296 296 296 297 297
288 288 289 289 289 289 288 289 289 289 289 289 290 290 290 290 290 291 291 292 293 293 294 294 294 294 293 293 293 292 292 294 295 295 295 296 296 296
286 285 287 287 288 289 289 289 289 289 289 288 288 288 288 289 289 289 290 290 291 292 292 292 292 292 292 292 292 291 291 291 291 292 294 295 295 296
285 285 284 285 286 287 287 287 287 286 286 285 286 286 287 288 289 290 291 291 292 292 292 292 292 292 293 292 292 291 291 291 290 289 290 292 293 294
284 283 283 284 285 286 286 286 285 285 285 284 284 285 285 286 287 288 288 289 289 290 290 290 290 291 291 291 292 293 292 292 291 291 291 290 288 289
281 282 282 283 284 285 285 285 285 285 285 285 284 284 283 284 285 286 286 287 287 288 288 289 289 289 289 289 290 291 291 291 292 292 291 291 291 290
280 280 281 282 283 283 284 283 283 283 284 283 283 284 284 285 284 284 285 285 286 287 287 288 288 288 288 288 289 289 289 289 289 291 292 292 291 291
280 280 281 281 281 281 282 282 282 282 282 283 283 284 284 284 284 284 284 284 285 286 286 286 286 287 287 287 287 287 287 287 287 287 288 290 291 290
280 280 280 281 282 282 283 283 283 283 283 282 283 283 283 283 284 285 285 284 283 284 284 285 286 287 287 287 287 287 287 287 287 287 287 287 288 289
279 279 280 281 281 281 281 281 281 281 281 281 282 282 282 282 283 283 284 285 285 285 285 285 285 286 286 287 287 287 287 287 287 289 289 289 288 288
278 279 280 280 280 280 280 280 280 280 281 281 282 283 283 284 284 284 284 285 285 286 286 286 287 287 286 286 286 287 288 288 288 289 288 289 289 289
278 278 279 279 279 280 280 280 281 281 282 282 282 283 283 284 284 285 285 286 286 286 286 286 286 286 286 286 286 286 287 287 288 289 289 289 288 288
278 278 278 278 279 280 280 280 280 281 281 281 282 282 283 284 285 285 286 287 287 287 286 286 286 286 286 286 286 286 286 286 286 287 289 288 288 288
278 278 277 278 278 278 279 279 279 279 280 280 281 282 282 283 284 285 286 286 286 287 287 287 287 286 286 286 285 285 285 285 286 287 288 289 289 288
277 277 277 277 277 277 277 278 278 278 279 279 280 281 282 282 284 285 286 287 286 286 287 287 287 287 286 286 285 285 285 286 286 286 287 287 289 289
276 276 276 276 276 276 277 277 278 278 278 279 280 280 281 282 283 284 285 285 286 287 287 287 287 287 287 287 287 287 286 285 285 286 286 287 287 289
275 275 275 275 275 275 276 277 278 278 278 278 279 280 280 281 282 282 283 284 284 286 287 286 287 287 287 286 286 286 287 286 286 286 286 286 287 288
274 274 274 275 275 275 275 276 277 277 277 277 279 279 280 281 281 281 282 282 283 283 284 283 284 284 285 285 286 286 286 285 285 285 285 285 287 287
274 274 274 274 274 274 274 275 275 276 276 276 278 279 279 280 280 281 281 281 281 282 282 283 283 283 283 284 284 285 284 284 283 283 283 284 284 285
273 273 274 274 274 274 274 274 275 275 275 275 277 278 278 279 280 280 280 280 280 280 281 282 282 283 282 282 283 283 283 282 282 282 283 282 283 283

GFSNE_850_thetae_009.txt.gz
Theta_e
294 293 294 294 294 295 295 295 295 294 294 293 292 292 293 294 295 296 299 299 299 299 298 299 300 300 298 299 299 298 298 299 301 301 302 302 303 303
291 291 291 292 292 292 292 292 293 293 293 293 292 292 293 292 293 294 295 297 298 298 297 297 298 297 296 298 299 298 299 299 299 300 300 300 301 300
290 291 290 289 290 290 290 290 290 290 291 291 291 291 291 291 291 292 292 294 295 297 296 296 296 296 296 296 296 297 297 297 298 299 299 299 300 300
289 289 288 287 286 288 289 289 289 289 289 289 290 290 290 290 290 291 291 292 292 295 295 295 295 295 295 294 293 293 294 295 296 296 296 297 297 298
288 287 287 286 285 285 286 287 288 289 289 289 289 289 289 289 289 289 290 290 291 292 293 294 294 294 294 294 294 293 293 292 293 293 295 295 295 296
287 286 286 285 285 284 284 286 286 287 288 288 287 287 286 287 287 288 288 290 290 290 291 291 292 292 293 293 293 292 292 292 291 291 291 292 293 294
285 284 283 282 283 284 285 286 286 287 287 286 286 285 285 284 285 287 288 288 291 291 291 291 292 292 292 292 292 292 292 291 291 291 291 290 290 290
283 282 281 280 282 283 283 284 285 285 286 285 285 285 284 284 284 284 285 286 287 288 289 290 291 291 291 291 291 292 293 292 292 291 291 291 290 290
282 281 280 280 280 281 282 282 283 284 284 285 285 285 284 284 283 283 284 284 284 285 286 288 289 289 289 289 289 290 290 291 291 291 292 292 292 291
281 280 280 280 280 280 281 281 282 282 282 282 282 283 282 283 283 283 284 284 284 285 285 285 286 287 287 287 288 288 288 289 290 290 290 290 290 291
280 279 279 279 280 281 281 282 282 282 282 282 282 283 283 283 284 284 284 284 284 284 285 285 285 286 286 286 287 287 287 287 287 287 287 288 288 288
279 279 279 280 281 280 280 281 281 281 281 282 282 282 282 282 283 282 283 284 285 284 284 284 284 284 285 286 286 286 286 286 286 287 287 287 287 287
278 278 278 279 280 280 280 280 280 280 280 281 281 281 282 282 283 283 283 282 283 284 285 285 285 285 285 285 286 286 287 287 287 287 287 288 289 289
278 278 279 279 279 280 280 280 280 280 280 281 281 282 282 283 284 284 285 284 284 284 284 285 286 286 286 286 286 286 286 286 287 288 287 288 288 289
278 278 278 278 279 279 280 280 280 281 281 281 281 282 282 283 283 284 285 285 285 285 285 286 286 287 286 286 286 286 285 286 286 287 287 288 289 289
277 277 277 278 278 278 278 279 279 279 280 280 281 281 282 283 284 284 285 286 286 286 287 286 286 286 286 286 286 286 286 286 286 286 286 286 288 288
277 277 277 277 277 277 277 278 278 278 279 279 280 281 281 282 284 285 286 286 286 286 286 287 287 287 286 286 286 286 285 285 285 285 285 286 287 289
276 276 275 275 276 276 277 277 278 278 278 279 280 280 281 282 283 284 285 285 286 287 286 287 287 287 287 287 286 286 286 285 285 286 287 286 287 287
276 275 275 275 275 275 276 277 277 277 278 279 279 280 281 282 282 282 283 284 285 286 287 287 287 287 286 287 286 287 287 286 285 285 285 285 286 287
274 274 274 274 275 275 275 276 276 276 277 278 279 280 280 281 281 281 282 283 283 284 284 285 285 285 286 286 286 286 286 286 286 286 286 286 286 286
274 274 274 274 274 274 274 275 275 276 276 277 278 279 280 280 280 280 281 281 282 282 283 283 283 283 284 284 284 285 285 285 285 285 285 285 285 286
274 274 274 274 273 274 274 274 274 274 275 277 278 278 279 279 280 280 280 280 280 280 281 282 282 283 282 282 284 284 284 283 283 283 283 283 284 284
276 273 274 274 274 273 274 274 273 273 274 275 276 277 277 278 279 279 279 279 279 279 280 282 282 282 283 282 282 283 283 282 282 282 282 282 282 283

GFSNE_850_thetae_012.txt.gz
Theta_e
290 290 291 291 291 292 292 291 291 290 291 292 292 292 291 291 291 292 293 294 297 299 300 299 300 301 299 298 299 299 299 301 304 306 305 305 306 306
289 289 290 290 289 288 287 288 289 290 290 290 289 290 291 291 291 291 292 292 294 295 297 298 298 297 299 299 298 298 298 298 299 300 302 302 302 303
289 289 289 288 288 288 287 286 287 288 290 289 289 288 289 290 291 291 291 291 291 294 296 297 296 295 296 296 297 296 297 298 298 299 299 300 300 300
288 288 288 287 286 286 286 285 285 286 287 288 289 289 289 289 289 290 290 290 290 292 293 294 296 295 295 294 294 294 294 294 296 297 297 297 297 297
288 287 287 285 285 284 284 284 284 284 286 287 287 288 288 288 288 288 288 288 289 289 291 293 291 294 294 294 294 294 294 293 293 293 294 295 296 295
287 286 284 282 281 281 282 283 284 285 285 286 287 287 287 287 287 286 286 287 288 290 290 290 292 291 293 293 293 293 293 293 292 292 291 291 292 293
284 283 282 281 280 280 282 283 283 284 285 286 286 286 285 285 285 284 284 284 286 288 290 290 291 291 291 291 292 292 292 292 292 291 291 291 291 290
283 282 281 280 280 280 280 281 282 283 283 284 285 285 285 285 285 284 284 283 284 286 287 289 289 290 290 291 292 292 292 292 292 291 291 291 291 291
282 281 280 279 279 280 280 280 280 281 281 282 283 284 284 284 284 284 283 283 284 284 285 287 288 289 289 289 290 290 290 290 291 291 292 291 291 291
280 279 279 279 279 279 280 281 281 281 281 282 282 282 282 282 282 282 283 283 283 284 284 284 286 287 288 287 287 288 288 288 288 288 289 290 290 290
279 279 278 278 279 280 280 280 280 281 281 282 282 282 282 282 283 283 283 284 284 284 284 284 284 285 285 285 286 286 287 287 287 287 287 287 287 288
278 279 278 279 279 280 280 280 280 280 280 281 281 281 282 282 282 282 282 283 283 283 283 284 284 284 284 285 285 286 286 286 286 286 286 287 286 287
278 278 278 278 279 279 280 280 280 280 280 280 280 281 281 281 282 282 282 282 282 282 282 283 284 284 284 284 285 286 286 286 287 287 287 287 287 288
278 278 278 278 278 279 279 280 280 280 281 281 281 281 282 282 283 283 284 284 284 283 283 283 284 284 285 285 285 285 285 286 286 287 287 287 287 288
277 277 277 278 278 278 278 279 279 280 280 280 281 281 282 282 283 284 284 285 285 285 285 284 284 285 285 286 286 286 285 285 285 286 286 286 286 287
277 277 277 277 277 277 278 278 278 278 279 279 280 281 281 282 283 284 285 285 286 286 286 286 286 286 286 286 286 286 286 286 285 286 286 286 286 286
276 276 276 276 276 276 277 278 277 278 279 279 280 280 281 282 283 284 285 286 286 286 286 286 286 286 286 286 286 286 286 286 285 285 286 286 286 285
275 276 275 275 275 275 276 277 277 277 278 279 279 280 281 282 282 283 284 284 285 286 286 286 287 287 287 286 286 286 286 286 286 285 285 285 286 286
274 274 275 275 274 275 275 275 276 276 277 278 279 280 281 281 281 282 283 283 284 285 285 286 287 287 287 286 286 286 286 286 286 285 285 286 286 286
274 274 274 274 274 274 274 275 275 276 277 278 278 279 280 280 280 281 281 282 283 283 283 284 285 285 286 286 286 286 285 286 286 286 286 286 286 286
274 274 274 274 273 274 274 274 273 273 275 277 278 278 279 280 280 280 280 280 281 281 282 282 283 283 283 284 284 284 285 285 284 284 285 285 285 285
277 274 274 273 273 273 273 273 273 273 274 276 277 277 278 278 279 279 279 279 279 279 280 281 282 282 282 282 283 284 284 283 283 283 283 283 283 284
276 276 275 274 273 273 273 273 273 273 273 274 275 276 276 277 278 278 278 278 278 279 280 281 281 282 282 282 282 283 283 282 282 282 282 282 281 282

GFSNE_850_thetae_015.txt.gz
Theta_e
288 288 288 288 289 289 288 287 287 289 288 288 290 289 290 291 291 291 291 291 292 292 295 298 299 301 302 301 301 301 303 302 304 306 309 307 309 308
288 288 288 288 288 288 287 287 286 285 286 287 287 288 288 288 290 290 290 290 290 291 292 295 298 299 300 299 297 297 299 301 304 306 308 307 305 304
288 288 288 288 288 287 287 286 285 285 285 285 286 287 289 289 288 288 289 290 290 290 290 293 295 296 298 298 298 298 295 296 298 299 300 300 301 302
288 287 287 287 287 286 284 283 283 283 284 284 284 286 287 288 288 288 287 288 289 289 289 290 293 293 296 296 295 297 297 293 295 296 297 299 299 299
287 287 286 284 283 283 282 282 281 282 283 284 284 284 286 287 287 287 287 287 287 287 289 289 291 292 294 295 294 294 294 295 293 292 294 296 297 296
286 284 283 283 282 281 280 280 281 282 283 283 284 285 286 286 286 286 286 286 286 286 288 290 290 290 291 293 294 294 293 293 293 293 292 292 293 294
283 283 282 281 281 280 280 280 280 281 282 283 283 284 285 286 286 285 285 284 284 285 285 289 289 290 291 291 292 293 293 293 293 292 292 292 291 291
282 281 280 280 279 279 279 280 280 281 281 281 282 283 284 285 285 285 284 284 283 284 284 286 288 289 289 291 291 292 292 292 292 292 292 291 291 291
280 279 279 279 279 279 279 280 281 281 281 281 281 281 282 283 284 284 284 283 283 283 283 284 285 288 289 289 289 290 290 291 292 292 292 291 291 291
279 279 279 278 278 279 279 280 280 280 280 281 281 281 281 282 282 282 282 282 282 282 283 283 284 284 286 287 288 288 289 289 289 289 289 289 289 289
279 279 278 278 279 279 280 280 280 280 280 280 280 281 282 282 282 282 282 283 283 283 283 284 284 284 284 285 285 286 287 287 287 287 287 287 288 288
279 279 278 278 279 279 280 280 280 280 280 280 280 280 280 281 282 282 282 282 282 283 283 283 283 284 284 284 285 285 285 285 286 286 286 286 287 287
278 278 278 278 278 279 279 279 279 280 280 280 280 280 281 281 281 281 281 281 281 282 282 282 282 283 284 284 285 285 285 286 286 286 286 286 286 286
277 277 277 277 278 278 278 278 279 279 280 280 281 281 281 282 282 282 283 283 283 284 284 283 282 282 283 284 285 285 285 286 285 286 287 287 287 287
277 277 277 276 276 277 277 278 278 278 279 279 280 280 281 282 282 283 283 284 284 285 285 284 283 283 283 284 284 285 285 286 285 285 286 287 287 287
276 277 276 276 276 276 277 277 278 278 278 279 279 280 281 282 283 283 284 285 285 286 286 286 285 284 284 285 285 285 286 286 286 285 285 286 286 286
275 276 276 276 276 276 276 277 277 277 278 279 279 280 281 282 283 284 284 285 285 286 286 286 286 286 286 285 285 285 286 286 286 285 285 286 286 286
275 275 275 275 275 275 275 276 276 277 277 278 279 280 281 281 282 282 283 284 285 285 286 286 286 286 286 286 285 285 286 286 286 286 285 285 285 285
275 274 275 274 274 274 274 275 275 275 276 278 279 279 280 280 281 281 282 283 283 284 284 285 285 285 285 285 285 286 286 286 286 286 285 285 285 286
277 274 274 274 274 274 274 273 273 274 275 277 278 279 279 280 280 280 280 281 281 282 283 283 284 285 285 285 285 285 286 286 285 286 285 285 285 285
277 276 274 274 274 274 274 273 273 273 274 276 277 278 278 278 279 279 279 279 280 280 281 282 283 283 283 283 284 284 284 284 284 284 284 284 284 285
276 276 276 275 274 274 274 274 274 274 274 274 275 276 277 277 278 278 278 278 278 279 279 280 281 282 282 282 282 283 283 283 283 283 283 283 283 283
277 276 275 275 274 275 275 275 274 274 274 273 273 274 275 275 277 277 277 277 277 277 279 280 281 281 282 282 282 282 283 282 282 281 282 282 282 281

GFSNE_850_thetae_018.txt.gz
Theta_e
287 287 287 287 288 288 288 287 286 285 286 286 286 286 286 286 287 289 290 290 290 290 290 290 291 295 298 301 302 303 304 305 305 304 308 308 307 307
288 288 288 288 288 287 287 287 286 285 284 285 285 285 285 285 286 287 287 289 290 289 290 290 290 291 295 298 299 301 302 305 305 305 306 306 307 306
288 288 288 287 287 287 286 285 284 283 282 282 282 283 284 285 285 288 288 288 288 288 289 289 289 290 294 297 298 296 301 301 304 306 305 304 306 307
288 288 287 287 286 284 283 283 282 281 280 281 282 282 283 284 287 287 288 288 288 287 288 288 289 289 291 295 298 295 294 295 296 300 303 303 303 304
288 287 286 284 283 283 282 281 281 280 280 282 282 282 283 284 284 286 286 286 287 287 287 286 288 289 290 293 295 295 296 294 294 293 295 298 299 300
286 285 283 282 282 281 280 280 280 280 280 280 281 283 283 284 285 286 286 286 286 286 285 285 287 289 289 292 293 294 294 294 292 292 294 294 294 295
284 282 281 280 280 280 280 280 280 280 280 280 281 281 282 283 284 285 285 285 285 285 284 284 288 289 290 290 292 293 294 294 293 292 292 292 292 292
281 281 280 279 279 278 279 279 279 280 280 280 280 280 280 281 282 284 284 284 284 284 284 284 285 288 289 290 290 291 293 293 293 292 292 292 291 292
281 280 279 279 279 279 279 279 279 280 280 280 280 281 281 281 281 282 282 283 283 283 283 283 283 285 287 288 290 291 291 293 293 292 292 292 292 291
280 279 279 279 278 278 279 279 279 280 280 280 280 280 280 282 281 281 282 282 282 282 282 282 283 283 284 286 289 288 289 291 292 292 292 291 291 291
280 279 278 278 278 279 279 279 279 280 280 280 280 280 280 280 281 282 281 281 281 282 282 283 283 283 284 284 285 287 287 289 289 289 289 289 289 289
279 279 278 278 278 278 278 278 279 279 279 280 280 280 280 280 281 281 282 282 282 282 282 283 283 283 284 284 284 285 286 287 287 287 287 287 287 287
278 278 278 277 277 277 277 278 278 278 279 280 280 281 281 281 281 281 281 281 282 282 282 281 282 282 283 284 285 285 284 285 285 285 285 286 286 286
277 277 278 277 276 276 277 277 278 278 278 279 280 280 280 281 281 282 282 282 282 282 282 283 282 282 283 283 283 285 285 285 285 286 286 286 286 286
276 276 277 276 276 276 277 277 277 278 278 279 279 280 280 281 281 282 283 283 283 284 284 284 284 283 282 282 283 284 285 285 285 285 285 285 286 286
276 276 275 275 276 276 276 276 276 277 278 278 279 280 281 282 282 283 284 284 284 285 285 286 285 284 283 283 283 284 285 285 286 285 285 285 287 287
277 276 276 276 276 276 276 276 276 276 278 278 279 280 281 281 282 283 284 285 285 285 285 286 285 285 285 284 284 284 284 285 286 285 285 285 285 286
278 276 276 275 275 275 275 275 274 275 277 278 278 279 280 280 281 282 283 283 284 284 285 286 286 285 285 285 285 285 284 285 285 285 285 285 285 285
278 277 275 275 275 274 274 274 274 274 275 277 278 278 279 279 280 280 281 282 283 283 283 284 285 285 286 285 285 284 285 285 286 286 285 285 285 285
277 278 277 276 275 274 274 274 274 274 274 276 277 277 278 278 279 279 279 280 280 281 282 282 283 284 285 285 284 285 285 285 285 285 285 285 285 284
277 277 277 277 276 275 274 274 274 274 273 274 275 276 277 277 278 278 278 278 279 279 280 281 282 282 283 283 283 284 284 284 284 284 284 285 285 285
279 277 276 276 275 275 275 276 276 275 274 274 273 274 275 275 276 277 277 277 277 277 278 280 281 281 282 282 282 282 283 283 283 283 283 283 283 283
279 279 278 276 276 276 275 274 274 274 274 274 274 274 274 274 274 275 276 276 276 277 277 279 280 281 281 281 282 282 282 282 282 282 282 282 282 282

GFSNE_850_thetae_021.txt.gz
Theta_e
288 288 288 287 288 288 288 287 287 287 287 286 286 286 286 286 287 288 289 289 289 290 290 290 290 290 290 293 296 298 302 305 306 308 308 309 308 307
288 288 288 288 288 287 287 286 286 286 285 285 284 284 284 284 285 286 287 287 288 288 288 289 290 290 290 290 294 297 299 303 304 305 307 307 308 308
289 288 288 288 287 286 286 285 284 283 283 283 283 283 283 284 284 285 286 287 288 288 288 287 288 288 289 289 292 295 297 300 303 305 306 307 308 308
289 288 288 286 286 285 284 283 283 282 282 282 282 282 283 284 284 285 285 287 288 287 288 288 287 287 288 289 290 293 297 298 300 304 305 306 307 307
288 287 286 285 284 283 283 282 282 282 282 281 282 282 283 283 284 285 285 286 287 286 286 287 286 286 286 288 289 292 295 298 300 300 302 305 306 305
286 285 284 282 282 282 282 281 281 281 281 281 281 282 282 283 284 284 285 286 286 286 285 286 285 285 286 288 289 292 294 295 294 295 296 299 302 303
285 283 282 281 281 280 280 280 280 280 281 281 281 281 282 282 282 283 284 284 286 285 285 285 286 287 287 288 290 291 293 295 292 292 292 294 296 296
282 282 281 281 279 279 279 279 279 280 280 281 281 282 282 282 282 282 283 283 285 285 285 285 285 286 287 289 290 290 293 294 294 293 292 292 293 293
282 281 280 279 278 278 279 279 280 280 280 280 280 281 281 281 281 282 283 283 283 284 284 284 285 285 285 287 289 290 291 293 294 293 292 292 292 292
281 280 279 278 278 278 279 279 280 280 280 280 280 281 281 281 281 281 282 282 282 283 283 284 284 284 284 284 287 289 290 291 293 293 293 292 292 292
281 278 278 277 277 278 278 279 279 279 280 279 280 280 280 280 280 280 281 282 283 283 283 283 283 284 284 284 284 287 290 290 291 292 292 292 292 291
279 278 278 278 277 277 277 277 278 279 278 278 279 280 280 281 281 280 281 282 283 283 283 283 284 284 285 284 284 284 286 289 291 290 291 291 290 290
279 277 277 278 276 276 276 277 278 277 277 278 279 280 280 281 281 281 281 281 282 282 283 283 283 284 284 285 285 284 284 286 288 288 288 288 289 289
279 277 276 277 276 276 276 277 277 277 278 278 278 279 279 280 280 281 282 282 282 282 282 282 282 283 283 284 285 285 285 284 285 286 287 287 287 287
279 277 276 276 276 276 276 276 277 277 277 277 278 279 280 281 282 282 283 283 283 283 283 283 283 283 283 284 284 285 285 285 284 285 285 286 286 286
279 277 276 276 275 276 276 276 275 276 277 278 279 280 281 281 282 283 283 284 284 284 285 285 285 284 283 283 284 284 285 285 285 286 286 285 286 286
279 278 277 276 276 276 275 275 274 275 277 278 278 279 280 280 281 282 283 283 284 284 285 285 285 285 284 283 283 283 284 285 285 286 285 285 285 286
278 278 278 277 276 275 275 275 274 274 275 277 278 278 279 279 280 280 281 282 283 283 284 285 285 285 284 284 284 285 285 284 285 285 285 285 286 286
278 278 278 278 277 275 275 275 275 274 274 276 277 277 278 278 279 278 279 279 280 281 283 283 284 285 286 287 285 285 285 285 285 284 285 285 285 285
279 278 277 277 277 276 276 276 275 275 274 274 274 275 276 277 278 278 277 278 278 279 280 281 283 284 285 285 285 284 285 285 285 285 285 285 285 284
279 279 279 278 277 276 275 275 275 275 275 275 274 274 274 275 276 277 277 278 278 278 279 280 281 282 283 283 284 283 284 284 284 284 284 283 284 284
280 279 279 279 278 277 276 276 274 274 274 274 274 274 274 274 274 275 276 276 276 277 277 279 280 281 282 282 283 282 283 283 283 283 283 283 283 285
280 280 279 279 279 278 277 277 276 275 274 274 274 274 274 274 273 273 274 274 275 275 276 279 280 281 281 281 281 282 282 282 282 282 282 282 282 282

GFSNE_850_thetae_024.txt.gz
Theta_e
293 292 292 291 290 290 289 289 289 289 289 288 288 287 287 287 287 286 287 288 288 289 288 288 290 290 290 290 290 291 296 296 300 305 308 311 310 309
292 292 291 291 290 289 289 288 288 288 287 287 287 287 286 286 286 285 286 286 286 287 287 287 288 288 289 289 290 290 292 296 298 302 305 308 309 309
292 291 291 290 289 288 288 287 287 287 286 286 286 286 286 285 285 286 286 287 287 287 288 288 288 288 288 288 289 290 290 293 296 299 303 305 307 308
291 290 290 289 288 287 287 286 286 285 285 285 285 285 285 284 285 285 285 286 287 287 289 288 287 287 288 287 287 289 290 291 297 298 300 304 305 307
290 289 288 287 286 286 285 285 285 284 284 284 284 283 284 284 284 285 285 286 286 287 287 288 286 286 286 287 287 287 288 289 294 297 300 303 305 307
288 287 286 284 284 283 283 283 283 283 283 283 283 283 283 284 284 284 285 285 286 287 287 287 287 286 286 286 286 286 288 289 293 296 298 300 305 307
286 285 284 283 282 281 281 281 281 281 282 282 283 283 283 284 284 284 284 284 285 286 287 288 287 287 288 289 288 287 288 291 294 295 294 296 300 302
284 283 283 282 282 280 280 279 279 280 281 282 282 283 283 283 283 283 283 284 285 285 286 287 287 287 287 289 289 287 289 292 293 294 292 292 294 298
283 283 282 282 281 281 280 280 281 281 281 281 281 283 283 283 283 283 283 283 284 285 285 286 286 286 287 287 287 287 289 291 293 294 292 292 292 291
282 282 282 281 281 279 279 280 281 281 281 281 281 281 281 282 282 282 282 283 283 284 284 285 285 285 286 287 286 286 288 290 292 293 292 292 292 292
282 282 280 280 279 278 278 279 280 280 281 280 279 279 280 281 281 281 282 283 284 284 284 285 285 285 285 286 287 286 287 290 291 292 292 293 293 292
282 281 280 278 279 277 277 278 279 279 279 279 280 281 281 282 282 282 282 282 283 284 285 284 285 285 286 287 287 287 286 288 291 292 292 292 292 291
281 281 280 277 277 277 276 277 277 277 278 279 280 281 282 282 282 283 283 283 283 283 284 284 284 285 286 287 287 287 287 287 289 291 291 291 292 291
280 280 279 277 277 276 277 276 277 277 278 278 279 280 281 281 281 282 282 283 283 283 283 284 284 284 285 285 286 287 287 287 288 288 289 290 290 290
280 279 279 278 277 277 277 276 276 277 277 278 279 279 279 280 282 283 283 284 283 283 283 283 284 284 285 285 286 286 287 287 287 288 288 288 289 288
280 279 279 279 278 277 277 277 276 275 276 277 277 278 279 280 281 282 283 285 285 285 285 285 284 284 284 285 285 286 286 287 287 287 287 287 288 288
280 279 279 278 278 278 278 277 277 276 276 276 277 278 278 279 280 281 282 283 285 285 285 285 286 285 284 284 285 285 285 286 287 287 286 287 287 288
280 280 279 279 278 278 278 277 277 276 275 275 276 277 277 278 279 280 281 282 283 283 284 285 286 285 285 284 285 286 286 286 286 286 286 287 287 288
279 281 280 279 278 278 278 277 277 276 276 275 275 276 276 277 278 279 280 280 281 282 283 283 285 286 287 287 285 285 286 286 286 286 286 285 286 287
280 280 280 279 279 278 277 277 276 276 276 276 275 275 275 276 277 278 278 278 279 281 282 283 283 283 284 285 286 285 285 286 285 285 285 285 286 285
282 281 280 279 279 278 277 277 277 276 275 276 275 275 275 275 276 276 277 277 278 280 280 281 281 282 283 284 285 285 285 285 285 285 285 285 285 285
281 281 281 280 279 278 277 277 276 276 276 275 275 275 275 275 275 275 276 277 278 278 279 280 280 281 282 284 285 284 283 284 284 284 284 284 285 286
281 281 281 280 279 278 277 277 276 276 276 276 276 275 275 275 274 274 275 276 276 276 277 279 280 281 282 282 283 283 283 283 283 283 283 283 283 284

GFSNE_850_thetae_027.txt.gz
Theta_e
296 296 294 294 293 293 292 291 290 290 290 290 289 289 288 288 288 288 288 287 287 287 287 287 288 288 288 290 290 291 291 290 291 295 297 301 305 310
295 295 294 293 293 292 291 290 289 289 289 289 288 288 288 287 287 287 287 287 287 287 287 287 287 287 287 287 289 289 291 291 290 292 295 297 304 309
294 293 293 292 292 291 290 289 289 288 288 288 287 287 287 286 286 286 286 286 286 286 287 287 288 287 288 288 288 288 289 290 290 290 293 296 300 304
293 292 292 291 290 289 288 288 287 287 286 286 286 285 286 286 285 285 285 286 286 287 287 287 288 288 289 288 287 287 288 288 289 290 291 296 298 302
292 291 290 289 288 287 286 286 285 285 285 285 285 284 284 284 285 285 285 285 286 286 287 287 287 287 287 286 286 286 287 287 288 288 291 295 298 300
290 289 288 287 286 285 284 284 284 284 283 283 284 284 284 284 285 285 285 285 285 285 285 287 288 288 287 287 286 285 287 287 287 288 292 295 297 299
289 287 286 285 284 283 282 282 282 282 282 282 282 283 283 284 284 284 284 284 285 285 286 286 287 288 288 288 288 288 288 287 287 289 293 295 296 298
287 286 285 285 284 283 282 281 281 281 281 282 282 282 282 283 284 284 284 284 284 284 285 286 286 288 288 288 289 290 289 288 287 291 293 294 294 298
286 285 285 284 284 283 282 281 281 281 281 282 282 282 283 282 282 283 283 284 284 284 285 285 285 287 287 287 287 287 287 286 287 290 293 293 291 294
285 285 284 284 282 281 280 280 281 281 282 282 281 281 281 281 281 282 282 283 283 283 284 285 284 285 286 286 286 286 286 286 288 290 293 292 291 294
285 284 283 282 281 279 278 279 280 280 281 280 280 280 280 281 281 282 282 283 283 284 284 285 285 285 285 285 285 285 286 286 287 290 292 292 291 291
284 284 283 282 281 278 277 278 279 280 279 279 279 281 281 282 283 283 283 284 284 283 284 285 286 286 286 287 286 287 287 287 287 290 291 291 292 292
283 283 283 282 280 278 277 278 278 276 277 279 280 281 282 282 282 283 283 284 284 284 284 284 285 285 286 287 287 287 287 288 288 290 291 291 292 292
282 282 281 280 279 278 278 277 277 278 279 279 280 281 281 281 281 282 283 284 284 284 284 284 284 284 285 285 286 288 288 287 288 289 290 291 291 292
281 281 281 280 280 280 279 279 278 279 278 278 279 279 280 280 281 282 283 284 285 285 284 284 284 284 285 285 286 287 287 288 287 288 289 290 290 291
282 282 281 281 281 280 280 280 280 279 278 278 278 279 279 280 281 281 282 283 285 286 286 285 285 284 284 285 286 286 287 288 287 287 288 288 288 289
282 281 281 282 281 281 281 280 280 280 279 277 278 278 279 279 280 280 281 282 283 284 285 286 286 285 285 285 285 286 286 287 287 288 287 287 287 287
282 281 282 282 281 281 281 280 280 280 279 277 278 278 278 278 279 280 281 281 282 283 284 284 286 286 285 285 285 286 286 286 287 287 287 287 288 288
281 281 282 282 281 281 281 280 280 279 278 278 278 278 277 277 278 280 280 280 280 281 283 283 284 284 286 287 286 285 286 288 287 286 286 286 286 288
281 281 282 282 282 281 281 280 280 278 278 277 277 277 277 277 278 278 279 279 280 280 282 283 283 282 284 284 287 285 285 287 286 286 286 286 286 286
282 283 283 283 282 281 281 280 278 278 277 277 277 277 277 277 277 277 278 278 279 280 280 281 281 281 283 285 285 285 285 285 285 286 286 286 286 286
283 282 283 283 283 281 280 279 279 278 278 278 277 277 276 276 277 277 277 277 278 278 279 279 280 282 283 284 285 285 284 284 285 285 285 285 286 287
283 283 282 282 282 281 280 279 279 278 278 277 276 277 276 276 277 277 277 276 277 277 277 279 280 282 283 283 284 284 284 283 284 284 284 284 284 285

GFSNE_850_thetae_030.txt.gz
Theta_e
296 296 295 295 294 294 293 292 291 291 290 290 290 289 289 288 288 287 287 287 287 287 287 287 286 287 288 288 289 290 291 293 291 291 290 291 293 299
295 295 295 294 294 293 292 291 291 290 289 289 289 288 287 287 287 286 286 286 286 286 285 286 286 287 287 287 288 288 290 290 289 291 291 290 291 294
293 294 294 293 292 291 290 289 288 288 287 287 287 286 286 286 285 285 285 284 284 285 286 286 286 287 287 287 288 288 287 287 288 289 290 290 290 292
293 293 292 291 290 290 288 287 287 287 286 286 285 285 284 284 284 284 284 284 285 285 285 286 286 287 287 287 288 288 288 288 287 287 288 290 289 290
292 291 290 289 288 287 287 286 285 284 284 284 284 283 283 283 283 284 284 284 285 285 285 285 285 286 286 288 288 288 287 287 286 287 287 288 289 290
290 290 289 287 287 286 285 284 283 282 282 282 282 282 282 282 283 283 284 284 284 284 284 284 285 285 286 287 288 287 286 286 286 286 286 287 288 290
288 288 287 286 286 285 284 283 283 282 281 281 281 281 282 282 282 283 283 283 283 283 284 284 284 285 286 286 288 287 287 287 285 287 287 287 288 291
287 287 286 286 285 284 284 283 283 281 281 281 281 282 282 282 282 282 281 281 282 282 283 283 283 284 285 288 288 288 288 289 288 287 286 288 290 292
286 286 286 285 284 284 283 282 279 280 281 281 282 282 281 281 281 280 280 281 282 282 282 282 283 284 284 285 286 287 287 287 287 286 286 290 292 292
286 286 285 284 284 283 282 279 279 279 280 281 281 280 280 280 280 281 281 281 282 283 283 283 284 284 284 284 285 285 285 285 286 285 286 291 291 292
285 285 285 284 283 283 281 279 278 279 280 280 279 279 280 281 281 282 283 283 283 283 283 284 283 285 285 285 285 285 285 285 286 286 288 291 291 291
284 284 284 283 283 282 280 279 278 278 277 278 279 279 280 281 282 282 283 283 283 283 284 284 284 284 285 286 286 287 286 286 287 287 288 290 291 292
284 283 283 283 283 281 280 279 279 278 279 279 279 279 280 280 281 281 282 283 283 285 285 284 284 284 284 285 285 286 287 288 288 288 289 290 291 292
284 283 282 282 280 280 280 280 280 279 279 278 278 279 279 280 280 281 281 282 283 284 285 284 284 284 284 284 284 285 286 287 287 289 290 290 291 291
284 283 282 281 281 281 281 280 280 280 279 279 278 278 278 279 280 280 281 282 283 285 286 284 284 284 284 284 284 285 286 287 288 288 290 290 291 291
283 283 282 281 282 281 281 281 280 280 280 279 279 278 278 278 279 279 280 281 282 284 285 286 285 284 284 284 285 285 286 287 288 287 288 289 290 291
284 283 282 282 282 281 281 281 280 280 280 279 278 278 278 278 278 279 280 280 281 282 283 284 285 286 285 285 285 285 286 286 287 288 287 287 288 288
283 283 282 282 282 282 281 281 281 280 280 279 278 278 278 277 277 278 279 280 280 281 282 283 284 284 285 285 285 285 286 286 287 287 287 288 288 287
282 282 282 282 282 282 281 281 281 280 280 278 278 277 277 277 277 278 278 279 279 280 281 282 283 283 284 284 286 284 286 286 286 286 286 286 288 288
281 281 281 282 282 282 281 282 281 280 279 278 278 277 277 277 277 277 277 278 278 279 280 280 281 281 283 284 284 285 285 287 287 286 286 286 286 286
282 282 282 282 283 283 282 281 281 280 279 278 278 277 277 277 277 277 277 277 278 278 278 279 280 281 283 284 285 285 285 285 286 286 286 286 286 286
283 283 283 283 283 283 283 282 281 280 279 279 278 278 277 277 277 277 277 277 277 277 277 278 280 281 283 284 285 285 285 284 285 285 285 285 286 287
284 284 283 283 282 283 282 282 281 280 279 279 278 278 277 277 277 277 277 277 276 276 276 279 279 281 283 283 283 284 284 283 284 284 284 284 285 285

GFSNE_850_thetae_033.txt.gz
Theta_e
296 296 295 295 295 295 294 293 292 292 291 290 289 288 288 288 288 288 287 287 286 285 286 285 285 286 287 287 288 289 290 290 290 292 293 293 293 293
293 292 293 294 295 293 292 291 290 289 288 288 288 287 287 286 286 286 286 285 284 284 284 284 285 286 286 286 287 288 289 289 290 290 292 292 292 292
292 293 292 292 292 292 290 290 289 288 287 287 286 285 284 284 285 284 283 283 284 284 284 284 284 285 286 286 286 286 287 288 288 289 289 289 289 289
292 292 292 291 290 289 289 288 287 286 286 284 283 283 283 282 282 282 282 283 283 284 284 284 284 285 285 285 285 286 287 288 288 288 288 287 286 287
292 291 290 289 289 288 287 286 286 285 283 283 282 282 281 281 282 282 282 282 283 283 283 283 284 284 284 284 285 285 287 287 288 288 287 287 286 286
290 290 289 288 287 287 286 285 284 283 283 282 281 281 281 281 282 282 282 282 282 282 282 282 283 283 283 284 285 285 286 288 288 286 286 286 286 286
288 288 287 287 286 286 285 284 284 283 283 281 280 281 281 281 282 282 281 280 280 280 281 282 282 282 283 283 284 286 287 287 287 287 287 286 286 286
287 285 286 286 285 285 284 284 283 282 280 279 280 280 281 281 281 280 280 280 280 281 281 282 283 282 283 283 284 286 288 288 288 288 288 287 287 286
287 285 286 286 285 284 284 284 282 281 279 279 280 281 281 280 280 280 280 281 281 282 282 283 283 283 283 284 284 284 285 286 286 286 286 286 286 286
288 285 286 285 285 284 283 282 281 280 279 279 280 280 280 279 280 281 281 282 282 282 283 283 283 283 284 285 285 285 285 285 285 285 285 285 285 288
287 285 284 285 284 283 283 282 281 280 279 278 279 279 279 280 281 282 281 281 282 282 283 284 284 283 284 283 285 286 286 286 285 286 286 286 286 290
286 285 284 284 283 283 282 281 280 280 280 280 279 279 279 280 280 280 280 281 281 282 283 283 284 284 284 284 283 284 285 287 286 286 287 286 288 290
285 284 283 283 283 282 281 280 280 280 280 279 279 278 279 279 279 280 280 281 281 282 283 284 284 284 284 284 284 284 285 286 287 287 288 288 289 290
286 285 283 283 282 281 281 281 280 280 280 279 279 279 278 278 279 279 279 280 281 282 284 285 285 284 284 284 284 284 284 285 287 287 287 289 290 290
286 285 284 283 282 281 281 281 281 280 280 279 279 279 278 278 278 278 279 280 281 282 283 285 285 284 284 284 284 284 285 286 288 288 289 289 290 290
285 285 284 283 283 281 282 281 281 281 280 280 279 279 278 278 278 278 279 280 280 281 282 283 284 285 286 285 284 284 285 286 287 288 288 289 290 290
285 284 284 283 283 282 282 281 281 281 280 280 279 279 278 278 278 278 278 279 279 279 281 283 283 284 285 285 285 285 285 285 286 288 287 287 288 290
284 284 284 283 283 282 282 282 281 281 281 280 280 278 278 277 277 277 277 278 278 279 280 281 282 283 285 285 285 285 285 285 286 287 287 287 287 288
284 284 282 282 282 282 282 282 281 281 281 280 280 278 277 277 277 277 277 277 278 279 279 279 280 281 282 283 284 285 285 286 286 286 286 286 288 287
284 283 282 282 282 282 282 282 282 281 281 281 280 278 277 277 277 277 277 277 277 278 278 278 279 281 281 282 284 285 285 286 286 286 286 286 286 287
285 284 283 282 282 282 282 282 282 282 281 281 280 279 278 277 277 277 277 277 277 277 277 277 280 281 283 284 285 284 285 285 286 286 286 286 286 285
285 285 284 283 282 282 282 283 283 283 282 282 280 280 278 277 277 277 276 276 276 276 276 278 280 282 283 283 284 284 284 284 285 285 285 285 286 286
285 285 285 284 284 283 283 282 282 282 282 281 280 279 279 278 277 277 276 276 276 276 276 277 279 281 281 282 283 284 284 283 284 284 284 284 285 285

GFSNE_850_thetae_036.txt.gz
Theta_e
295 295 293 291 292 294 295 294 293 292 291 290 289 288 288 287 286 286 286 285 285 285 284 284 285 286 287 287 288 288 288 290 290 290 291 291 292 294
294 293 291 291 292 292 293 292 291 290 289 288 288 287 285 284 283 283 283 283 283 283 283 283 284 285 285 286 286 287 287 288 288 289 290 291 291 293
294 292 291 292 291 291 290 289 289 288 287 286 285 284 283 283 283 283 282 282 282 282 283 283 283 284 284 285 285 285 286 286 287 288 289 290 291 291
294 292 291 291 290 289 289 288 287 286 285 285 283 283 282 282 281 281 282 281 281 282 282 282 283 283 283 284 284 284 284 284 285 287 287 289 289 289
293 291 290 290 289 288 288 287 286 285 284 283 283 282 281 281 281 281 281 281 282 281 281 281 282 282 283 283 283 283 284 285 285 286 287 288 287 288
292 291 289 289 288 287 287 286 285 284 284 283 282 280 280 281 281 281 281 281 280 280 281 281 281 281 282 282 283 283 283 284 285 285 287 287 287 286
292 291 288 286 286 286 286 285 284 284 283 282 280 279 280 280 280 280 280 280 280 281 282 282 282 283 282 282 282 282 283 285 287 287 287 288 287 286
292 290 289 286 285 285 285 284 284 284 282 281 279 279 280 280 280 280 279 280 281 282 282 282 283 283 283 283 284 284 284 285 287 288 287 287 288 287
291 290 288 287 285 285 285 284 284 283 281 280 279 279 280 279 279 279 280 281 281 282 282 282 283 284 283 283 284 285 285 284 285 286 285 285 286 286
291 290 288 286 285 285 284 284 283 282 281 280 279 279 279 279 279 280 281 281 281 281 281 282 283 283 284 284 284 285 285 285 285 285 285 285 285 285
290 289 287 285 285 284 284 283 282 281 280 280 280 279 278 279 279 280 280 280 280 281 281 282 283 283 284 284 283 284 284 285 285 286 285 285 285 285
289 288 286 284 284 283 283 282 281 280 280 280 280 279 278 278 278 279 279 279 280 280 281 281 283 284 284 284 283 283 284 284 284 286 285 286 286 286
288 287 286 285 284 283 282 281 281 280 280 280 279 279 279 279 278 278 279 279 279 280 281 282 283 284 284 284 283 284 284 284 285 287 287 287 287 287
287 287 286 285 284 283 282 281 281 281 280 280 279 279 279 278 278 278 278 279 279 280 281 283 283 284 284 284 284 284 284 284 285 287 287 287 288 288
288 287 287 285 284 283 282 281 281 281 280 280 280 279 279 278 278 278 278 279 280 280 281 282 283 284 284 284 285 284 284 285 286 287 288 288 289 289
288 287 286 285 284 283 283 282 281 281 281 280 280 280 279 278 278 278 278 278 278 279 280 282 283 283 284 285 285 285 284 285 285 287 288 288 288 289
287 286 286 285 284 283 283 282 281 281 281 281 280 280 280 278 278 277 277 277 278 278 280 281 282 282 284 285 285 285 285 285 286 287 287 288 289 289
287 286 285 285 284 283 283 282 282 282 281 281 281 280 280 278 278 277 277 277 277 278 279 279 280 282 284 283 284 285 284 285 285 286 286 287 288 289
287 286 285 285 284 283 282 282 282 282 281 281 281 281 280 278 277 277 277 277 277 277 277 277 278 280 282 283 284 284 284 285 285 286 285 286 288 287
287 286 286 285 284 282 282 282 282 282 282 281 281 281 280 279 278 277 277 277 277 277 277 277 279 280 281 282 283 284 284 285 286 286 285 286 286 287
287 287 286 285 284 283 282 282 282 282 282 282 282 281 280 279 278 277 277 276 276 276 276 277 279 281 283 284 284 284 284 285 286 286 286 286 286 285
286 287 286 285 285 283 282 282 282 282 283 282 282 281 281 280 279 277 277 276 276 276 276 276 279 281 283 283 284 284 284 284 285 285 285 285 285 286
286 287 287 285 285 285 284 283 282 282 282 282 282 282 281 280 279 278 277 277 276 276 276 276 278 280 281 282 283 284 283 283 284 284 284 285 285 285

GFSNE_850_thetae_039.txt.gz
Theta_e
294 294 294 293 291 291 291 292 292 292 290 290 289 288 287 286 284 283 283 283 283 283 283 283 284 285 285 286 287 287 288 289 289 289 290 291 292 292
294 294 294 293 291 291 291 291 290 289 288 288 286 285 285 283 282 282 282 282 282 282 282 282 283 284 285 285 286 286 287 287 288 288 289 289 290 291
294 294 294 292 290 290 290 289 289 288 287 286 285 284 283 282 282 282 282 282 282 281 281 281 282 283 282 283 283 285 285 286 286 286 287 288 289 290
294 294 293 292 290 290 290 289 288 287 286 285 284 283 282 282 281 281 281 281 281 281 281 281 281 281 282 282 282 283 284 284 284 284 283 284 286 289
294 294 293 291 290 289 289 288 287 286 285 284 284 283 282 281 281 281 281 281 280 280 280 281 281 281 281 281 282 282 283 283 283 283 284 284 285 286
294 293 292 291 289 287 286 286 286 285 284 284 283 282 281 280 280 280 281 280 279 280 281 282 282 282 283 282 282 282 282 282 283 283 283 284 285 285
293 293 292 291 289 288 286 285 285 284 284 283 282 281 280 279 280 279 279 279 280 281 281 282 282 282 283 283 283 282 282 282 283 283 285 287 287 287
293 293 292 290 289 288 286 285 285 284 283 283 282 280 279 279 279 279 279 280 280 281 281 281 281 282 283 284 283 283 284 284 284 284 286 287 287 287
292 292 291 290 289 287 285 285 284 284 283 282 281 280 279 279 278 279 279 280 280 280 280 281 281 282 284 284 284 283 285 284 284 285 285 285 286 286
292 291 291 289 288 286 285 284 284 284 282 281 280 280 279 279 278 279 279 279 280 280 280 281 282 283 284 284 284 283 284 284 284 285 285 285 285 285
291 291 290 288 287 285 284 284 284 283 281 280 280 280 279 279 278 278 278 279 279 279 280 281 281 283 283 284 284 283 284 283 283 284 284 285 286 285
290 290 289 288 287 285 284 283 283 282 281 280 280 279 279 279 279 278 278 278 278 278 280 280 281 282 282 284 284 284 283 283 283 284 284 286 286 285
289 289 288 287 286 286 284 283 283 281 281 280 280 279 279 279 279 278 278 278 277 278 279 280 280 282 283 283 284 284 284 283 283 284 286 287 287 287
289 289 288 287 287 286 285 283 282 281 281 281 280 280 279 279 279 278 278 278 278 279 279 279 280 281 282 283 283 285 285 284 284 286 286 287 287 287
288 288 288 287 287 286 285 283 282 282 281 281 280 280 280 279 279 278 278 278 278 278 278 279 281 281 282 282 283 284 284 284 285 285 286 287 287 288
288 288 288 288 287 286 285 284 283 283 281 281 281 280 280 280 279 278 278 278 278 278 278 280 280 281 282 283 284 284 284 284 285 286 287 288 287 288
288 288 288 287 286 286 285 284 283 283 282 281 281 281 280 280 280 278 277 277 277 277 278 279 280 280 281 283 283 283 284 284 285 286 286 287 288 289
288 287 287 288 287 286 285 284 283 282 282 281 281 281 280 280 280 278 277 277 277 277 277 277 277 280 282 283 283 283 284 285 285 285 286 287 288 288
287 287 286 287 288 286 285 284 283 282 282 281 281 281 280 280 279 278 278 277 277 277 277 276 278 280 281 282 283 283 284 284 285 286 285 286 287 288
286 286 287 287 286 286 285 284 282 281 281 281 281 281 280 280 280 279 278 278 277 277 278 276 279 280 281 282 282 283 283 284 285 286 286 286 286 286
287 286 286 286 286 286 285 284 283 282 281 281 281 281 281 280 280 279 278 278 277 277 277 276 278 280 282 283 283 283 283 284 285 285 285 285 285 285
286 286 286 286 286 286 285 284 283 282 282 281 282 282 281 281 281 279 278 278 277 277 277 277 277 280 281 282 283 283 283 283 284 284 285 285 285 285
286 286 286 286 286 286 285 285 284 282 282 282 282 282 282 281 281 279 279 278 278 277 277 278 277 279 280 281 282 283 283 283 283 283 284 284 284 285

GFSNE_850_thetae_042.txt.gz
Theta_e
296 294 294 294 293 292 290 290 291 291 290 289 289 288 286 285 285 284 283 283 282 283 283 283 282 284 285 285 286 287 288 288 288 289 290 290 291 291
295 294 294 294 293 291 290 290 290 289 289 288 287 286 285 284 283 282 282 282 282 282 282 282 282 283 283 284 284 285 285 286 287 288 288 289 289 290
294 294 294 294 293 292 290 289 289 289 288 287 286 285 284 283 282 281 281 281 281 282 281 281 281 281 281 281 282 283 284 284 285 286 287 287 287 288
293 294 294 293 293 291 290 289 288 288 287 286 286 285 284 283 281 281 281 281 281 281 280 280 280 280 281 281 281 281 282 283 284 285 285 285 286 287
294 294 294 293 293 291 290 288 287 287 286 285 284 284 283 282 281 281 281 281 281 280 280 280 281 281 282 282 282 282 282 282 282 282 283 283 283 284
294 294 294 293 292 291 289 288 286 285 285 284 284 283 282 281 281 280 281 280 280 280 281 281 281 282 282 282 283 283 283 282 282 282 282 282 282 283
294 294 293 293 292 290 289 288 286 285 285 284 283 283 282 281 280 280 279 279 279 280 281 281 281 281 282 282 283 283 283 283 283 283 282 282 283 285
293 293 293 292 292 290 289 288 286 285 284 284 283 282 281 280 280 279 279 279 279 280 280 280 280 281 282 283 284 284 283 283 283 284 284 284 285 286
293 293 292 292 291 290 289 288 286 285 284 283 283 282 280 280 280 279 279 278 279 278 279 280 281 282 282 283 284 284 284 283 284 284 284 285 285 285
292 292 291 291 291 289 288 286 285 284 284 283 282 281 280 280 279 279 278 278 278 279 278 279 281 281 282 283 284 283 283 283 284 283 283 283 284 284
291 291 291 290 290 289 287 286 284 284 284 283 282 280 280 280 279 279 279 278 279 279 279 280 280 280 282 283 283 283 284 283 283 283 283 283 283 284
289 289 289 289 289 288 287 286 285 284 283 282 281 280 280 279 279 279 279 278 278 278 278 278 279 279 280 282 282 283 284 284 284 283 283 283 284 286
289 288 289 289 289 288 287 286 286 284 283 281 281 280 280 279 279 279 279 278 278 277 278 278 278 279 279 280 282 283 283 284 284 283 284 285 286 286
288 288 287 288 288 288 287 286 286 284 282 282 281 281 280 280 280 279 279 278 278 278 278 277 278 278 279 280 281 282 283 284 284 284 285 286 287 287
287 288 288 288 288 288 287 287 286 284 283 282 282 281 281 280 280 280 279 278 278 278 278 277 278 279 279 280 281 282 283 284 284 285 285 286 287 287
287 287 287 287 288 288 287 286 286 285 284 283 282 281 281 280 280 280 279 278 278 279 278 278 278 279 279 280 281 282 283 283 284 285 285 287 286 287
288 287 287 287 287 287 287 287 286 285 284 283 282 282 281 280 280 280 279 278 278 278 279 278 277 277 279 280 282 283 282 284 284 285 286 286 286 287
288 287 287 287 287 287 287 287 286 285 285 283 282 282 281 280 280 280 279 278 278 278 278 277 277 279 281 282 283 283 283 284 284 285 285 286 287 287
288 287 287 286 286 286 286 286 286 286 284 283 282 282 281 281 280 280 280 279 278 278 278 277 277 279 280 281 282 283 283 283 285 285 286 286 286 286
287 288 287 287 286 286 286 286 286 285 284 282 282 281 281 281 280 280 280 279 278 278 278 278 277 279 280 281 281 283 283 283 285 285 285 285 285 286
286 287 286 286 287 286 286 286 286 285 284 283 282 281 281 281 281 280 280 279 278 278 278 278 277 279 281 281 282 283 283 283 283 284 285 285 285 285
286 286 286 286 286 285 286 286 285 285 284 283 282 281 281 281 281 281 280 279 278 278 278 278 277 278 280 281 282 283 283 283 283 283 283 284 284 284
285 286 285 285 285 285 285 285 285 285 284 283 282 282 281 282 281 281 280 280 278 278 278 278 278 277 279 280 281 282 283 283 283 283 283 283 283 283

GFSNE_850_thetae_045.txt.gz
Theta_e
296 296 295 294 294 293 292 291 292 291 291 291 290 289 287 286 286 285 284 283 283 283 283 282 282 283 283 284 285 286 286 287 288 288 289 289 290 291
296 296 294 294 294 294 293 291 292 290 290 290 289 288 286 286 285 284 283 282 282 282 282 282 282 282 282 283 283 284 284 285 286 287 287 288 289 290
296 295 294 294 294 293 293 291 291 291 290 290 288 287 286 285 284 283 282 282 282 282 282 282 282 281 281 280 281 281 282 283 284 285 285 287 288 288
295 293 294 294 294 293 293 292 291 290 289 288 288 286 285 284 283 282 281 281 281 281 281 281 281 280 281 281 281 282 282 283 283 284 284 286 286 286
295 294 294 294 294 293 293 291 290 289 287 287 286 285 284 283 283 281 281 281 281 281 281 281 281 281 281 282 282 282 282 283 283 283 283 283 284 284
295 294 294 294 294 293 292 291 290 289 287 286 286 285 284 283 282 281 281 281 281 281 281 281 281 281 281 281 281 282 282 283 283 282 282 283 283 282
294 294 294 293 294 293 292 291 290 288 287 286 285 285 284 283 282 280 281 281 281 281 281 281 281 282 282 282 282 282 283 283 283 283 283 284 284 284
292 293 293 293 293 293 292 291 290 288 287 286 285 284 284 283 281 280 280 281 281 281 281 281 281 282 282 282 283 283 284 284 284 283 283 284 284 284
290 291 293 293 292 292 291 291 290 288 287 285 285 284 283 282 280 280 281 280 281 280 280 281 281 281 282 282 283 284 283 283 283 283 283 284 284 284
289 290 292 292 291 290 290 290 289 287 286 284 284 284 283 281 280 280 280 280 280 280 280 280 281 281 282 282 283 284 283 283 284 283 284 284 283 283
290 289 290 290 290 290 289 289 289 287 286 284 284 283 282 280 280 280 280 280 280 280 280 280 281 280 281 282 283 283 283 283 284 284 284 283 283 283
289 289 289 289 289 289 288 289 289 287 286 285 283 283 281 280 280 279 280 280 280 280 280 279 279 280 280 281 282 282 283 283 284 284 284 284 283 283
289 289 289 288 288 288 288 288 289 288 286 285 283 282 281 280 280 280 280 280 279 279 279 278 279 279 280 280 281 282 282 283 283 284 284 284 284 285
289 289 288 288 288 287 288 288 288 287 286 285 284 282 282 281 281 281 280 280 279 278 278 278 278 278 279 279 280 281 282 282 283 284 284 284 285 286
290 289 289 288 287 288 287 287 288 287 286 285 285 283 283 282 281 280 280 280 279 278 278 278 278 278 278 279 280 281 282 283 284 284 285 285 286 286
289 289 289 288 287 287 287 287 287 287 287 286 285 284 283 282 281 281 280 280 279 278 279 279 278 277 278 278 279 281 282 283 283 284 285 286 286 285
285 286 287 288 288 287 287 287 287 286 286 286 285 284 283 282 281 281 280 280 279 279 278 278 278 278 279 280 280 281 282 283 283 285 285 286 286 285
283 285 285 287 287 287 287 286 286 286 286 286 285 285 283 282 281 281 280 280 279 279 278 278 278 278 280 281 282 282 282 282 284 285 285 286 286 286
282 283 285 287 287 287 287 286 286 286 286 286 285 285 283 283 281 281 280 280 279 279 278 278 278 278 280 281 281 282 282 283 283 284 285 285 285 286
283 284 285 286 287 287 286 286 286 285 286 285 285 284 283 282 281 281 280 280 279 279 278 278 278 278 279 279 280 282 282 283 283 284 285 285 285 285
281 283 284 286 287 286 286 286 285 285 286 285 285 284 283 281 281 281 280 280 280 279 278 278 278 277 279 281 281 282 282 282 283 283 284 284 285 285
278 281 283 285 286 285 285 285 285 285 285 285 284 284 282 281 281 281 281 280 280 279 278 278 278 278 278 280 281 281 282 283 283 283 283 283 284 283
278 278 279 282 283 284 284 284 284 284 284 284 284 284 282 281 281 281 281 281 280 279 278 278 278 278 278 279 280 280 282 282 282 282 282 283 283 283

GFSNE_850_thetae_048.txt.gz
Theta_e
297 297 299 299 298 297 296 296 296 296 295 294 293 293 292 291 290 288 287 286 284 283 283 283 282 282 282 283 284 285 286 286 287 288 288 289 289 290
299 299 299 298 297 296 296 296 295 295 294 293 292 292 291 290 289 287 286 285 284 283 283 282 282 282 282 282 283 283 283 284 285 285 286 287 288 289
300 298 298 297 296 296 296 296 295 294 294 293 292 291 291 289 288 287 286 285 284 283 283 282 282 282 282 282 281 281 282 283 284 285 285 286 287 288
298 299 298 297 297 296 296 295 294 294 293 292 292 291 290 289 288 287 286 285 284 284 283 282 282 282 282 282 281 281 282 282 282 283 284 285 285 286
297 298 297 297 297 296 296 295 294 294 293 292 291 290 289 289 288 287 285 284 284 284 283 282 282 282 282 281 281 281 282 282 282 283 283 283 284 284
297 296 296 297 296 296 295 295 294 293 292 291 290 290 289 289 287 286 285 284 284 284 284 284 283 283 283 283 283 282 282 282 282 283 283 283 283 283
297 298 296 295 294 295 294 294 294 293 292 291 290 289 289 288 287 286 285 284 284 284 284 284 284 284 284 284 284 284 284 283 283 284 284 284 283 284
295 295 295 294 293 293 293 293 293 293 292 291 290 289 289 288 287 286 284 284 284 284 284 283 283 284 284 284 284 283 283 283 283 283 283 284 283 283
294 294 293 293 293 292 293 293 292 292 291 290 289 289 288 287 286 285 283 284 284 284 283 283 283 283 284 284 284 283 283 284 283 284 284 284 283 284
293 293 293 292 293 293 292 292 291 290 289 289 288 288 287 286 285 284 283 283 283 283 283 283 283 283 284 284 283 283 283 283 283 283 284 284 284 284
293 292 292 292 292 291 290 291 290 290 289 289 288 287 285 284 284 283 283 283 283 283 283 283 283 283 283 283 284 284 284 283 283 283 283 284 284 284
291 291 291 291 290 290 289 289 289 289 289 289 286 287 286 284 283 282 282 283 283 283 283 282 282 282 282 282 283 283 283 283 283 284 284 285 285 284
291 291 291 291 290 289 289 288 288 288 289 288 287 287 286 285 283 283 282 283 283 283 283 281 281 281 282 282 282 282 283 284 284 284 285 284 285 285
290 290 290 290 290 289 288 288 288 288 288 288 286 286 286 285 284 284 283 283 283 282 282 281 281 281 281 282 282 282 282 283 284 284 285 285 285 286
284 287 287 288 289 289 289 288 288 288 288 288 287 286 286 285 284 284 283 283 282 282 281 280 280 281 281 281 281 282 282 283 284 285 285 285 286 286
281 283 284 286 286 286 287 288 288 288 288 288 287 286 286 285 284 283 283 283 282 282 282 281 280 280 280 281 281 282 283 283 284 284 284 285 286 286
281 280 282 283 284 286 286 287 288 287 287 287 286 286 285 284 284 283 283 282 283 282 283 282 281 281 281 281 281 282 283 284 284 284 285 286 286 286
282 282 283 283 284 284 286 287 287 287 286 286 286 286 285 285 284 283 283 282 282 283 282 282 281 282 282 283 283 283 283 283 283 284 285 285 286 286
280 281 283 284 285 286 286 287 287 287 286 286 286 285 285 284 284 283 283 282 282 282 282 282 281 281 282 283 283 282 282 282 283 284 284 285 286 285
278 278 279 279 281 284 286 287 287 286 286 285 285 285 284 284 284 283 283 282 282 282 282 281 281 281 281 281 281 282 282 282 282 283 283 284 285 286
275 275 276 277 278 283 286 288 286 286 285 285 285 284 284 284 284 283 283 283 282 282 282 281 281 280 278 280 281 283 283 283 283 283 283 283 284 286
273 273 274 275 277 280 282 285 286 285 285 285 284 284 284 284 284 283 282 283 281 281 282 281 280 280 280 281 282 282 283 282 282 283 283 283 283 283
271 272 273 275 276 278 280 282 284 284 284 284 284 284 284 283 283 282 282 282 282 282 281 281 280 280 280 280 280 281 282 282 282 283 283 282 282 283

GFSNE_850_thetae_051.txt.gz
Theta_e
306 305 302 302 301 300 300 299 298 298 298 298 297 296 295 294 293 292 291 290 289 287 286 284 283 283 282 282 283 283 285 286 286 286 287 288 288 289
304 303 301 301 301 300 299 299 298 298 297 297 296 295 294 294 293 292 291 289 288 288 286 284 284 283 282 282 282 282 283 284 285 285 286 287 287 287
303 302 301 300 300 299 298 298 298 297 296 295 295 295 294 293 293 292 291 290 289 287 285 285 284 283 282 282 282 282 282 283 284 284 285 286 286 287
302 301 300 299 299 299 298 297 297 297 296 295 295 294 293 293 292 291 290 289 288 287 286 285 284 283 283 283 283 283 282 282 282 283 283 284 285 286
301 300 299 299 299 298 297 297 297 297 296 295 295 294 293 292 291 291 290 289 288 287 285 285 284 284 284 284 284 284 284 283 282 282 282 282 283 284
301 299 299 298 298 298 298 297 297 297 296 295 294 293 292 292 291 290 290 289 288 287 286 286 285 285 285 285 285 285 284 284 284 283 283 283 284 284
299 299 298 298 298 298 297 296 296 296 295 295 294 293 292 292 291 290 290 289 288 286 286 286 286 285 285 285 285 285 285 285 284 283 283 283 284 284
298 298 298 297 296 295 295 294 293 294 294 294 294 293 292 291 291 290 289 288 287 286 286 286 285 285 285 285 285 284 284 284 283 283 284 284 284 284
296 296 296 295 294 294 294 294 294 293 293 293 293 292 292 291 290 289 288 287 287 285 285 285 285 285 285 285 285 284 284 283 283 283 284 283 283 284
294 295 295 295 294 294 293 293 294 293 293 292 291 290 290 289 290 288 287 286 285 284 285 285 285 285 284 284 284 284 284 284 284 283 283 283 283 283
293 294 294 293 293 293 293 292 292 292 292 291 291 291 290 289 288 287 286 285 284 285 285 285 285 284 284 283 284 284 284 284 283 283 283 283 284 284
292 292 292 292 292 292 292 291 291 291 290 290 290 290 289 289 288 287 285 284 284 284 284 285 285 284 283 283 284 283 283 283 283 283 284 284 284 285
288 288 289 289 291 291 291 291 291 290 289 289 290 289 289 288 286 286 285 284 283 284 284 284 284 283 283 283 283 283 283 283 283 284 284 285 285 285
283 282 282 282 282 283 287 290 291 290 290 289 289 289 288 289 288 287 285 285 284 284 284 284 283 283 282 282 283 283 283 283 283 284 285 285 285 286
281 281 281 281 281 282 284 285 287 287 288 289 288 288 287 287 288 287 286 285 285 284 284 283 283 282 282 282 282 282 283 283 284 285 285 285 286 287
280 280 281 282 283 284 284 285 286 286 287 287 288 288 288 287 287 287 286 285 284 283 283 283 283 282 281 281 282 282 282 283 284 285 285 286 286 287
279 280 282 284 284 285 286 286 285 286 287 288 288 288 287 287 287 286 285 285 284 284 284 284 284 283 282 282 282 283 283 283 284 284 285 285 286 286
279 281 281 281 282 282 283 284 286 287 286 287 287 287 287 287 287 286 285 284 284 284 283 284 284 283 283 283 283 284 284 283 283 283 284 285 285 287
279 280 279 279 279 279 280 281 282 284 287 287 287 287 287 286 286 286 285 284 284 284 284 284 284 283 283 283 284 284 283 283 282 283 283 284 285 286
278 278 277 277 277 277 277 278 281 285 287 287 287 286 286 286 286 286 285 285 284 283 283 284 284 283 283 283 282 282 283 283 283 283 283 283 285 287
276 276 276 275 275 275 276 277 281 283 286 286 286 286 285 285 286 285 285 284 284 284 284 284 283 283 282 281 281 282 284 283 283 283 283 283 283 286
274 273 273 273 273 273 274 276 279 281 282 286 286 285 285 285 285 285 285 284 283 283 283 283 283 282 281 281 282 283 283 283 282 283 283 283 282 283
272 272 271 271 271 272 272 275 278 280 280 283 285 285 285 285 285 285 285 284 284 283 282 283 283 282 281 281 281 281 282 282 282 282 283 283 283 282

GFSNE_850_thetae_054.txt.gz
Theta_e
310 307 306 305 305 304 303 302 301 300 299 299 299 298 297 296 295 294 294 293 292 291 290 289 288 287 285 284 283 282 282 283 285 286 287 287 287 288
309 307 305 305 304 303 301 301 300 299 299 298 297 297 296 295 295 294 294 293 292 291 290 289 288 286 286 284 283 283 283 283 283 285 285 286 287 287
305 304 303 303 302 301 301 300 299 299 298 298 297 296 295 295 295 294 293 292 292 291 289 288 288 287 285 284 284 284 283 284 283 284 285 285 286 286
303 303 303 302 301 300 300 300 299 298 298 297 297 297 295 294 295 293 292 292 291 291 290 289 287 285 285 285 285 285 284 284 284 283 283 284 284 285
303 303 302 301 300 299 300 299 298 298 297 298 297 296 296 295 294 293 292 292 291 290 289 288 286 286 286 285 285 285 285 285 284 284 283 282 282 284
303 301 300 299 299 299 299 298 298 298 298 298 297 297 296 295 294 293 292 291 291 290 289 288 287 286 286 286 285 285 285 285 285 285 284 284 283 283
301 299 299 299 298 298 298 297 297 298 297 296 296 296 296 295 294 293 292 291 290 290 289 288 287 286 286 286 285 285 285 285 284 284 284 284 283 284
299 298 297 297 297 297 296 296 296 295 294 294 293 293 295 294 294 293 292 291 290 290 288 287 286 286 286 284 285 285 285 285 284 284 284 283 283 283
295 295 295 295 295 295 295 294 294 294 294 294 294 293 292 292 293 292 291 291 290 288 287 286 286 285 285 285 285 285 285 284 284 284 283 283 283 283
294 294 294 294 294 294 294 294 294 293 293 293 294 293 292 292 292 291 290 289 289 288 287 286 285 285 285 285 284 284 283 284 284 283 283 283 283 283
290 290 290 291 291 292 292 292 292 292 292 292 292 291 291 291 291 291 290 289 288 288 287 285 284 285 285 285 284 283 283 283 283 283 283 283 283 283
288 287 286 285 284 284 285 288 290 290 291 291 291 291 290 290 290 290 290 289 288 287 287 285 284 285 285 284 283 283 283 283 283 283 283 284 284 285
285 284 283 283 282 282 282 281 281 281 283 286 289 290 290 290 290 289 289 288 287 287 286 284 284 284 284 283 283 282 282 282 283 283 283 284 285 285
282 282 282 281 281 281 283 284 284 283 283 283 286 286 287 288 289 289 289 288 286 286 285 284 284 284 284 283 282 282 281 282 282 282 284 285 285 285
281 281 280 280 281 283 284 285 285 286 286 286 286 285 286 287 288 288 288 288 287 285 285 285 285 284 283 282 282 281 281 282 282 283 284 285 285 286
280 280 280 281 281 281 281 282 283 283 284 286 286 286 286 287 288 289 288 288 287 286 285 285 284 283 282 283 282 281 282 282 283 284 284 284 285 286
279 279 280 281 280 279 279 279 280 281 282 283 284 286 286 287 288 288 287 287 287 286 285 284 283 283 283 283 282 282 283 283 284 283 283 284 285 285
279 279 279 279 278 278 277 278 278 279 280 281 284 285 287 287 288 287 287 287 286 285 285 284 283 284 284 283 283 283 284 284 283 282 283 283 284 285
278 278 278 277 277 276 276 276 276 277 279 281 283 285 287 287 287 287 286 286 286 285 285 284 283 284 284 283 282 283 283 283 282 282 283 282 283 285
277 277 276 276 275 275 275 274 274 276 278 280 282 286 287 287 287 287 286 286 286 285 284 284 283 284 283 283 283 283 282 281 283 282 283 283 283 285
275 275 274 274 274 273 273 273 273 275 277 279 280 283 287 286 286 286 285 286 286 285 284 283 283 284 283 283 282 282 282 283 283 283 283 283 283 284
274 273 273 273 272 272 272 272 272 274 276 277 280 280 284 285 285 285 285 285 285 285 284 283 284 283 283 282 281 281 282 283 282 282 283 283 283 282
272 272 271 271 271 270 271 271 271 273 274 275 277 279 280 283 285 285 285 285 285 285 284 283 283 283 282 281 281 281 281 282 282 282 282 283 283 283

GFSNE_850_thetae_060.txt.gz
Theta_e
320 319 317 316 314 312 311 310 308 306 305 304 304 303 301 300 300 299 298 296 295 295 294 294 294 293 293 292 291 290 288 287 286 285 285 285 287 288
319 318 315 314 312 311 309 306 305 305 303 302 302 301 300 300 299 298 297 295 295 295 294 294 294 293 293 291 291 290 289 287 286 286 286 286 287 287
318 316 314 313 310 308 305 305 304 304 302 301 301 300 300 299 299 298 298 297 296 296 295 294 294 293 292 291 290 289 289 287 286 285 285 286 286 286
315 313 311 309 307 304 304 303 301 301 301 301 300 299 298 299 299 298 298 297 297 296 296 295 294 292 292 291 290 289 289 287 286 285 285 285 285 285
311 309 307 305 304 303 301 300 299 299 300 300 300 299 297 297 296 296 296 296 295 295 295 295 293 293 292 291 289 289 287 287 286 285 285 285 285 284
308 306 304 303 301 300 299 298 297 297 297 296 296 296 296 295 295 295 294 294 293 293 293 293 294 293 291 290 289 287 288 287 286 285 285 285 285 284
304 303 302 300 299 298 297 296 296 296 296 296 296 296 295 294 294 294 293 293 293 293 293 292 293 291 291 291 289 288 287 286 285 285 285 284 284 284
302 300 299 298 297 296 295 295 295 295 295 294 294 294 294 293 292 292 292 292 292 292 292 292 292 292 291 290 288 288 286 285 285 285 285 284 283 283
299 298 297 295 293 293 293 293 294 294 293 292 292 291 289 287 286 288 290 291 291 291 291 291 291 291 289 289 289 287 286 284 285 285 284 283 283 282
297 293 292 292 292 292 291 290 288 286 285 284 283 283 283 283 283 282 281 283 288 290 290 291 291 290 290 288 288 287 285 285 285 284 284 283 283 283
292 291 291 290 289 286 284 284 284 284 283 283 283 283 283 284 285 285 285 284 285 286 289 289 290 290 289 289 288 287 284 285 285 284 283 282 282 282
291 290 286 285 284 284 284 283 283 283 282 282 281 281 281 282 284 285 285 283 284 286 286 289 290 290 288 288 287 285 284 284 283 283 282 282 282 282
286 284 284 283 283 283 283 282 282 281 281 280 280 280 280 280 281 283 284 285 285 284 286 287 288 289 287 286 285 284 284 284 283 282 281 281 282 282
284 283 283 282 282 282 281 281 281 280 280 280 279 279 280 281 282 281 283 284 286 286 286 288 288 288 286 286 284 284 284 284 282 281 281 282 283 283
283 282 282 281 281 281 280 280 279 279 279 279 279 279 279 280 281 282 282 284 285 286 286 286 288 286 285 284 284 284 284 283 282 282 282 283 283 283
282 281 281 281 280 280 279 279 278 278 277 277 277 278 278 280 281 282 283 284 285 285 287 287 287 286 284 284 284 284 283 282 282 283 283 283 283 283
281 280 280 280 279 278 278 277 277 277 276 276 276 277 278 280 281 281 283 285 286 287 286 287 287 286 285 285 284 283 283 282 282 283 283 283 282 283
280 279 279 278 278 278 277 276 276 275 275 275 274 275 277 279 280 281 283 285 286 287 287 287 286 286 285 285 284 283 283 282 282 283 282 282 282 282
279 278 278 277 277 276 275 275 274 274 273 273 273 274 276 277 279 280 282 285 286 286 286 286 286 285 285 284 284 283 283 282 282 282 281 281 282 283
277 277 276 276 275 274 274 273 273 273 273 273 273 273 274 276 278 280 280 283 285 286 286 285 285 285 285 284 283 283 283 283 282 282 282 282 282 282
276 276 275 274 274 273 273 272 273 273 272 272 272 273 273 275 277 279 279 281 283 286 285 285 285 285 285 284 283 283 283 283 282 282 282 282 282 282
274 274 273 273 272 272 272 272 272 272 272 272 272 272 272 273 276 277 278 279 283 283 285 285 285 285 284 283 283 283 283 281 281 281 281 282 282 282
273 272 272 271 271 271 271 271 271 271 271 271 271 271 272 273 274 276 277 278 281 284 284 284 284 285 284 283 283 282 281 281 281 281 281 281 281 282

GFSNE_850_thetae_063.txt.gz
Theta_e
323 322 321 320 318 318 316 313 312 310 308 308 307 307 306 304 301 300 299 300 299 298 297 297 296 295 294 294 293 293 293 292 291 290 288 288 287 288
322 322 321 319 318 316 314 312 311 309 305 305 305 305 303 301 300 300 299 299 298 298 296 295 295 295 294 294 293 293 292 291 290 290 288 288 288 288
321 321 320 318 315 313 312 310 308 305 304 304 303 302 301 300 300 299 299 299 298 297 297 297 296 296 296 295 293 293 292 291 289 289 288 287 288 288
321 319 318 315 313 310 308 305 304 303 301 300 300 301 300 299 298 298 297 297 296 296 296 297 296 296 296 295 295 293 291 291 289 288 287 286 286 287
319 316 314 312 309 307 305 303 303 301 300 299 298 298 297 297 296 296 295 295 295 294 294 293 293 292 292 293 293 293 292 291 289 287 286 287 286 285
315 312 310 308 306 304 302 301 300 299 296 296 296 296 295 295 295 295 294 294 294 293 293 293 293 292 292 292 292 292 292 291 289 287 287 286 285 285
313 310 307 304 303 302 301 300 298 296 295 295 294 294 294 293 293 293 293 292 292 291 291 290 290 290 291 291 292 291 291 291 289 288 286 286 285 284
309 306 304 302 301 300 298 297 295 294 294 293 293 293 293 293 291 288 285 283 282 284 287 287 288 289 290 291 291 291 290 289 288 287 286 285 285 285
305 303 301 300 299 298 296 294 293 293 292 292 291 289 285 283 283 283 283 284 284 284 284 282 285 285 289 289 291 290 289 288 286 286 285 285 285 284
301 299 298 298 296 293 292 291 291 289 286 284 284 283 283 282 282 282 283 284 284 284 284 284 285 285 285 289 290 290 288 287 286 286 285 285 284 284
299 298 295 293 291 290 289 287 285 285 284 283 283 282 282 281 280 280 280 283 283 284 285 284 284 285 285 285 289 289 288 286 287 285 285 284 284 283
293 292 291 290 289 285 284 284 284 284 283 283 282 282 281 280 280 280 281 280 281 283 284 284 285 284 286 287 288 288 287 287 285 284 284 283 283 282
292 291 288 285 284 284 284 283 282 282 281 280 280 280 280 280 279 279 280 281 281 281 283 284 285 285 286 287 287 287 286 284 284 283 283 282 281 281
290 285 283 283 283 282 282 281 281 280 280 279 279 279 279 279 279 279 280 281 282 282 282 285 284 284 286 286 286 284 284 284 283 283 282 281 281 282
284 283 283 282 281 280 280 280 280 279 279 279 279 279 278 278 278 278 280 281 282 283 283 285 284 285 285 287 286 285 283 284 283 282 282 282 282 283
282 281 281 280 280 280 279 279 279 279 278 278 278 278 277 277 277 278 279 281 282 284 285 286 286 286 286 286 285 284 284 284 282 282 282 283 283 283
281 281 280 280 280 279 278 278 278 277 277 277 277 276 276 276 276 277 279 281 282 284 286 286 287 286 286 285 284 284 284 283 282 282 282 282 282 282
280 279 279 279 278 277 277 277 276 276 276 275 275 275 275 275 276 276 278 280 281 283 285 286 286 286 285 285 285 285 284 283 282 282 282 281 281 282
278 278 277 277 276 276 276 275 275 274 274 274 274 274 274 274 274 275 277 279 280 282 285 286 286 286 286 285 285 284 284 283 283 282 282 281 281 282
277 277 276 276 275 275 274 274 273 273 273 273 273 273 273 273 273 274 276 278 279 280 284 285 285 285 285 285 285 284 283 283 283 282 282 282 282 282
276 275 275 275 274 274 273 273 272 272 272 272 272 272 272 272 273 273 274 277 277 279 281 284 285 285 285 285 284 283 283 283 283 282 281 282 282 282
275 275 274 273 273 272 272 271 271 271 272 272 272 272 272 272 272 272 273 275 277 278 280 283 284 285 284 284 284 283 283 283 282 281 281 281 281 281
273 273 272 272 271 271 271 270 270 271 271 271 271 271 271 271 271 271 272 274 276 278 278 283 283 284 284 284 284 283 283 282 281 281 281 281 281 281

GFSNE_850_thetae_066.txt.gz
Theta_e
318 317 319 321 321 320 319 318 317 315 312 311 311 310 309 307 307 304 302 300 299 299 299 299 298 297 297 297 297 296 295 295 295 294 293 292 291 290
318 318 319 321 321 319 318 317 315 312 311 308 308 307 307 306 305 302 300 300 300 299 299 298 298 297 296 296 296 295 295 295 295 294 293 293 292 291
322 321 322 321 320 319 317 315 313 312 310 307 306 305 304 303 301 300 299 299 298 297 297 297 297 297 297 297 296 295 295 295 295 294 293 292 292 290
322 322 321 320 319 317 315 313 311 310 307 305 303 302 302 299 299 298 297 297 296 296 295 295 295 294 294 294 293 293 292 293 294 294 293 291 290 290
320 320 321 319 317 314 312 310 309 306 304 302 301 300 298 296 296 295 294 294 293 293 292 292 292 292 291 291 292 292 292 292 292 292 292 291 291 288
320 319 319 315 313 311 309 307 305 303 302 301 299 295 294 293 292 291 290 289 288 287 287 286 286 286 285 285 287 289 290 291 291 292 291 291 291 289
319 317 314 312 311 309 306 304 303 301 300 296 294 293 292 291 291 289 287 286 285 286 286 285 285 284 284 284 284 285 289 290 291 292 292 291 289 288
316 314 313 311 307 305 302 301 300 298 296 294 292 292 290 288 285 285 284 284 284 285 284 284 284 283 284 284 284 284 289 290 290 291 289 289 288 286
312 311 310 306 303 302 300 299 297 294 293 292 290 287 285 284 284 284 284 283 283 283 282 283 282 283 283 284 284 284 286 288 289 289 289 288 286 285
309 307 304 302 301 299 298 295 293 292 289 286 284 284 284 283 283 282 282 281 281 281 281 281 281 281 283 284 284 284 285 288 288 290 288 287 286 285
305 302 300 299 297 296 293 291 289 286 284 284 284 283 283 282 281 281 281 280 281 281 281 281 282 282 282 284 284 284 285 287 288 288 286 286 286 285
300 298 298 295 292 291 289 286 284 284 284 284 283 282 282 281 281 280 280 279 279 280 280 281 281 281 282 284 284 285 286 287 287 285 285 286 285 284
296 293 292 291 288 286 284 284 284 284 283 283 282 282 281 281 280 279 279 279 279 279 280 281 282 282 282 283 284 285 286 287 285 285 284 284 284 283
292 291 289 286 284 283 283 283 283 282 281 281 280 280 280 280 279 279 278 278 278 279 280 281 281 282 282 283 284 285 286 285 284 284 283 283 283 282
291 288 285 283 283 283 282 282 281 280 280 280 279 279 279 278 278 278 278 278 278 279 281 283 283 284 283 283 285 285 285 284 283 283 283 282 282 282
288 284 282 282 281 281 281 280 280 280 279 279 278 278 277 277 277 277 277 277 278 279 281 283 284 285 284 284 285 285 285 283 283 283 282 282 282 282
283 282 282 282 281 280 281 280 279 278 278 277 277 277 277 276 276 276 276 276 276 278 281 283 285 286 285 285 285 285 284 283 284 282 282 282 282 282
284 282 281 280 281 281 279 278 277 277 277 276 276 275 275 275 275 275 275 275 275 278 280 282 284 285 285 285 284 285 284 284 283 282 282 282 282 281
283 283 281 279 278 277 277 276 276 276 275 274 274 274 274 274 274 274 274 274 275 277 279 281 283 284 284 284 285 285 285 284 283 283 282 282 281 281
280 279 278 277 277 277 276 276 275 274 274 273 272 272 273 273 273 273 273 273 273 276 279 280 282 283 284 285 285 285 284 284 283 283 282 282 281 282
278 277 276 276 275 274 274 273 273 272 272 271 271 271 271 271 272 272 272 272 272 274 277 279 280 281 283 284 284 285 284 283 283 283 282 282 281 282
275 275 274 273 273 272 272 271 271 271 270 270 270 271 271 271 271 271 271 271 272 273 275 278 279 281 283 284 284 284 284 283 283 283 282 281 282 281
273 272 272 271 271 270 270 270 269 269 269 269 269 270 270 270 270 270 270 271 271 273 274 276 278 279 282 284 284 284 284 283 283 282 281 281 281 281

GFSNE_850_thetae_069.txt.gz
Theta_e
319 319 320 318 317 318 318 320 318 315 315 315 313 312 312 310 309 307 306 305 302 301 300 300 299 299 299 299 298 298 298 297 297 297 297 297 297 296
320 320 317 317 317 319 320 320 317 317 314 313 311 310 310 308 307 306 304 302 301 300 299 299 299 299 299 298 298 297 296 296 296 296 296 296 296 297
321 321 321 319 321 321 321 320 319 316 315 312 309 309 308 306 305 304 302 300 300 298 298 297 296 296 295 295 296 296 295 295 295 294 294 294 294 295
323 320 319 321 321 322 320 319 317 315 312 311 309 307 305 305 304 302 296 296 295 294 293 293 292 292 292 292 292 292 292 293 293 293 293 293 292 293
320 323 323 320 321 319 320 318 314 312 311 309 307 304 304 303 298 294 293 292 291 290 289 288 288 287 287 287 286 286 286 285 285 287 289 290 292 292
321 322 320 320 320 318 317 314 312 311 308 305 304 303 301 294 292 291 290 289 288 288 288 288 288 287 287 287 287 286 285 284 284 284 287 290 291 291
322 320 319 318 318 316 314 312 311 308 304 303 301 299 294 292 291 289 286 286 287 288 287 288 287 287 287 286 286 285 284 284 284 284 287 289 290 291
321 319 319 318 315 313 311 310 306 303 302 300 297 294 292 290 287 285 285 284 285 286 285 286 286 286 286 285 284 283 283 284 284 284 289 289 290 291
321 320 317 313 310 310 307 304 302 301 299 296 293 291 289 285 285 285 284 283 284 284 284 284 285 285 284 283 283 283 283 284 284 284 288 289 290 289
318 316 312 309 306 305 303 301 299 297 294 292 289 286 285 284 284 284 283 283 283 284 283 283 283 283 283 283 283 282 284 285 285 285 287 288 289 288
310 307 305 304 303 301 299 298 295 292 290 287 285 284 284 283 282 282 282 282 281 282 283 282 283 282 282 283 284 284 285 285 286 287 287 288 289 287
306 305 301 300 299 298 295 292 289 286 284 284 283 283 282 281 282 281 282 281 280 280 281 280 280 281 282 282 284 284 285 285 286 287 288 288 287 286
304 301 299 298 296 292 290 286 284 284 283 283 282 282 281 281 281 281 281 280 279 279 279 278 279 280 279 280 283 284 285 285 285 286 286 285 285 285
299 297 294 292 290 287 284 283 283 283 282 282 282 281 281 281 281 280 280 280 279 279 279 278 278 280 280 280 281 284 285 284 285 285 285 285 284 284
293 292 290 288 284 283 283 282 282 281 281 282 281 280 280 279 280 280 279 279 279 279 278 278 279 281 281 281 282 283 284 285 284 284 284 283 284 283
291 288 284 282 282 282 282 282 282 282 282 280 279 278 278 279 279 278 278 277 278 278 278 277 279 280 282 282 281 283 284 285 284 284 284 283 283 282
285 284 283 283 283 283 282 280 282 281 278 278 278 278 279 278 277 276 276 276 276 277 277 277 277 280 282 284 284 284 284 284 285 284 284 283 283 282
284 285 285 283 281 280 281 279 278 277 277 278 278 277 277 276 275 275 274 274 274 275 276 276 276 279 281 284 284 285 284 285 285 284 284 284 284 283
284 284 283 282 281 279 278 277 277 277 277 276 276 276 275 273 273 273 273 273 273 273 274 275 275 276 278 281 285 285 284 284 284 284 284 283 283 283
282 281 280 279 278 277 277 276 275 275 274 274 274 273 272 271 271 271 271 271 271 272 272 273 274 276 275 277 280 284 285 285 285 284 284 283 283 282
279 278 277 276 276 275 274 274 273 273 272 272 271 271 270 270 270 271 270 270 271 270 271 272 273 275 277 278 279 283 284 285 284 284 284 283 283 283
276 275 274 274 273 273 272 271 271 269 269 268 268 269 269 269 269 268 267 268 268 269 269 270 271 273 275 276 280 284 284 284 283 283 283 283 283 283
273 273 272 272 271 271 270 269 269 268 268 268 267 267 268 268 269 267 267 267 267 268 268 269 271 272 275 276 280 283 284 284 283 283 283 282 281 281

GFSNE_850_thetae_072.txt.gz
Theta_e
318 317 318 319 320 319 318 317 320 317 318 316 316 316 315 313 312 311 310 309 309 308 307 306 303 302 301 301 300 300 300 300 299 298 298 298 299 299
320 320 318 317 320 320 318 317 318 317 316 316 317 316 315 312 311 309 308 308 307 307 305 302 300 299 299 299 299 298 298 298 298 298 297 297 297 297
320 317 315 318 321 321 318 317 319 319 316 316 315 315 312 311 309 308 307 307 304 304 301 297 296 296 295 294 293 293 292 292 293 294 294 295 295 295
320 315 315 320 321 321 320 315 320 320 317 317 315 313 311 309 307 307 305 303 300 298 294 293 292 290 290 289 288 288 288 287 287 287 287 286 288 291
317 319 320 319 317 316 318 319 318 317 317 316 313 310 307 308 306 304 303 297 296 293 291 289 289 289 289 289 288 288 288 288 287 286 286 285 285 285
316 318 319 319 317 316 319 320 317 317 315 313 308 309 307 304 303 299 296 295 293 289 289 289 289 289 289 289 289 289 288 287 286 285 284 284 284 284
320 320 321 320 320 320 319 319 317 316 313 311 309 307 304 301 298 295 293 291 289 288 288 289 288 288 289 288 289 288 287 285 284 284 283 284 284 284
322 322 320 319 320 319 318 317 315 312 311 309 306 303 300 296 293 291 289 289 289 289 288 288 287 288 288 288 287 287 286 284 284 283 284 284 284 286
322 321 320 320 318 318 318 312 309 308 306 305 302 299 295 292 290 287 287 288 288 288 287 287 287 287 288 287 286 286 285 284 283 284 285 285 284 287
320 319 320 318 317 314 310 307 305 303 302 300 298 295 292 288 286 285 285 285 285 286 286 286 286 286 286 286 285 285 284 283 284 285 285 286 285 287
318 318 316 312 310 304 305 303 301 300 298 296 292 289 286 285 285 284 284 285 285 285 285 284 286 285 284 284 286 285 284 285 286 285 285 286 286 287
313 310 305 305 303 301 301 301 298 296 293 289 286 285 284 284 284 283 282 282 283 284 285 283 284 283 283 284 284 284 285 286 286 286 286 287 288 289
308 303 300 299 298 298 297 293 291 289 285 284 283 283 283 283 282 282 281 281 280 282 282 281 281 281 281 282 283 283 284 286 287 286 286 287 287 287
301 299 298 298 296 293 289 286 285 283 283 283 282 282 283 282 282 282 281 280 280 281 280 279 278 279 280 281 282 283 284 286 286 286 286 286 286 286
298 298 296 293 288 285 284 284 283 283 283 282 283 284 284 283 281 280 280 281 281 280 279 278 278 278 279 280 281 282 283 284 286 286 286 286 286 286
294 291 288 285 284 283 284 285 284 284 285 285 284 281 280 278 279 280 280 280 279 278 277 277 277 277 278 279 280 281 282 283 286 287 286 286 285 285
288 285 285 287 287 284 283 284 284 282 282 281 280 278 277 279 278 277 278 276 276 277 277 277 277 277 278 279 279 280 282 284 285 286 286 286 285 285
289 288 286 285 283 282 281 281 280 279 278 277 277 276 276 275 275 275 274 275 275 276 276 276 276 277 278 279 280 282 283 285 286 286 286 286 286 285
285 284 283 282 281 279 278 277 276 276 277 275 274 273 273 273 273 274 274 274 274 275 275 275 275 276 277 279 280 281 283 286 287 286 286 285 286 285
282 281 280 279 278 277 276 275 274 273 273 272 272 272 271 271 272 273 273 273 273 273 273 274 275 276 276 277 276 280 282 284 286 286 286 286 285 285
278 277 276 276 275 274 273 273 272 271 271 271 270 270 270 270 270 271 271 271 271 272 273 274 274 273 273 274 276 278 281 283 284 286 285 285 285 285
276 275 274 273 272 272 271 271 271 271 270 270 270 269 269 269 269 270 270 270 271 271 272 272 273 273 274 275 276 277 279 282 285 285 285 285 285 285
274 272 271 271 270 270 269 269 269 268 268 268 267 267 267 267 268 268 269 269 269 270 270 271 272 273 273 275 275 276 278 281 284 284 284 283 283 283

GFSNE_850_thetae_075.txt.gz
Theta_e
317 318 318 315 318 321 320 320 320 319 318 317 319 319 319 316 316 314 313 312 312 312 311 309 308 307 307 305 302 302 302 301 301 300 300 300 299 299
318 320 319 318 320 320 320 319 320 320 318 317 318 318 318 315 315 315 313 312 311 310 309 308 307 306 304 300 296 297 297 296 296 295 294 293 293 293
319 320 319 319 320 321 321 319 321 320 318 317 317 318 317 315 316 315 312 310 309 308 308 306 305 304 297 294 293 292 291 291 290 289 289 289 288 288
320 320 319 319 319 320 320 320 321 319 317 315 315 316 316 315 314 311 310 307 307 304 303 305 302 294 293 291 290 290 289 289 289 289 288 288 288 287
319 320 320 319 319 319 320 320 318 317 316 315 314 315 314 313 310 310 309 307 305 303 300 298 293 291 290 289 289 289 289 289 289 288 288 287 287 287
320 320 319 318 317 318 318 317 314 315 316 316 313 313 312 309 309 309 307 305 301 298 295 292 290 289 289 289 289 290 290 290 290 288 287 287 287 286
319 319 319 318 314 315 317 316 318 316 316 315 311 311 309 307 308 307 304 299 296 295 292 291 291 290 290 289 290 291 291 291 288 286 285 286 285 284
317 316 315 315 317 319 320 320 320 319 317 316 311 309 309 307 306 303 298 296 292 292 291 291 290 290 289 289 290 290 289 288 286 286 285 284 284 284
315 316 319 321 322 322 320 320 319 317 314 314 310 307 304 302 301 297 295 292 290 291 290 290 289 288 289 289 289 289 289 286 286 285 284 284 285 285
318 320 322 322 321 320 319 318 314 307 305 305 305 303 302 298 296 293 290 289 289 288 287 288 288 288 288 288 288 288 286 287 285 284 286 285 285 285
320 322 321 320 317 316 315 311 305 302 302 301 300 298 297 294 290 287 286 286 286 288 287 287 287 287 287 287 286 287 286 285 285 285 285 286 286 286
319 317 315 312 309 308 305 303 302 300 298 299 297 293 288 285 284 284 284 284 285 286 287 286 286 285 285 285 285 285 284 284 284 286 287 286 286 287
314 311 307 302 301 300 299 299 298 296 294 292 289 285 284 283 284 283 283 283 283 283 285 284 283 283 282 283 283 283 282 283 285 286 286 287 287 287
308 303 300 298 298 297 297 295 291 287 286 284 283 283 283 283 283 283 284 285 283 282 281 282 281 281 281 280 280 281 282 283 283 284 285 287 287 287
301 298 296 295 296 296 295 289 285 284 283 282 283 283 283 284 285 284 281 280 280 281 281 281 280 279 278 279 280 280 281 281 282 283 285 287 287 286
296 294 294 294 292 288 285 285 283 284 286 285 286 285 284 283 282 280 279 280 280 280 279 279 278 278 278 278 279 280 280 281 282 282 286 287 287 286
295 293 293 291 287 286 286 287 286 285 284 284 283 281 280 278 278 278 278 278 277 278 279 279 278 278 278 278 278 279 280 280 281 282 285 286 287 286
291 289 286 285 284 283 282 282 282 281 280 280 278 277 277 276 276 276 276 276 277 277 277 278 278 278 278 278 279 279 280 282 283 284 285 287 287 286
285 284 284 283 282 282 281 280 278 278 278 276 275 275 275 275 274 274 275 275 276 276 276 276 276 276 276 277 278 279 280 280 280 282 285 287 286 286
284 283 282 281 279 278 278 277 276 276 275 274 274 273 273 273 273 273 274 274 274 274 274 274 275 276 276 276 275 275 276 276 278 281 283 286 286 286
280 279 278 278 277 276 275 275 274 273 273 272 273 272 272 271 272 272 272 272 272 272 273 274 274 274 274 274 275 275 276 277 278 279 281 282 287 286
277 276 276 275 274 273 273 273 273 272 272 271 271 270 270 270 270 270 270 271 271 271 271 272 272 272 273 274 274 275 276 276 277 279 282 283 286 286
275 274 273 272 272 272 271 271 270 270 269 269 269 269 269 268 269 269 269 270 270 270 270 271 271 272 272 273 273 274 275 276 277 280 283 284 285 285

GFSNE_850_thetae_078.txt.gz
Theta_e
317 317 317 317 318 318 319 317 319 319 320 317 318 318 318 318 318 319 319 318 317 316 313 312 311 311 311 309 308 307 306 305 299 300 300 300 300 299
317 317 317 317 317 319 319 317 316 318 320 319 319 319 318 318 318 317 318 316 316 313 313 312 311 310 308 308 307 306 305 296 295 295 295 293 293 292
317 317 317 316 316 318 319 318 318 319 320 319 318 319 319 317 317 316 316 316 315 314 313 311 310 309 308 307 306 303 296 294 292 291 290 290 289 289
317 317 317 316 316 318 320 319 318 318 319 320 319 319 318 317 316 316 316 314 314 312 311 310 309 308 307 305 299 294 292 290 290 289 289 289 289 289
318 319 319 319 318 319 320 319 318 318 319 319 319 317 316 315 315 315 315 314 312 309 310 309 308 305 304 299 293 291 290 290 289 289 289 289 289 288
318 320 319 319 320 320 320 320 319 319 319 318 317 316 315 314 313 314 313 311 309 308 308 306 301 299 297 292 290 289 289 289 290 290 291 290 288 288
320 320 320 319 319 318 318 319 319 319 316 316 315 316 315 314 314 314 310 309 307 305 301 298 296 295 292 291 290 290 290 290 291 290 290 289 287 286
321 321 321 320 320 319 318 319 320 317 317 317 317 315 316 316 313 312 307 305 303 300 297 297 295 291 291 290 289 289 289 290 290 289 288 287 286 285
321 321 320 320 320 319 319 319 318 317 318 316 313 311 310 308 307 304 302 299 298 297 292 292 291 291 290 289 288 289 289 289 289 288 287 286 285 285
322 321 321 320 319 317 317 319 319 313 318 313 310 309 306 303 302 302 301 299 297 294 291 290 289 288 288 288 288 289 289 288 287 287 286 285 284 285
321 320 319 319 318 318 319 315 311 310 307 306 302 302 301 300 299 298 296 291 290 288 287 287 287 287 287 288 289 287 287 287 287 287 285 284 285 286
321 320 319 318 318 318 314 310 307 304 300 300 299 298 296 296 296 291 287 286 285 285 285 286 287 287 287 287 286 286 286 286 285 284 283 285 286 286
320 320 317 317 314 311 305 302 301 299 297 296 295 293 291 287 286 284 283 283 283 284 285 285 285 286 285 284 284 284 284 284 282 283 283 283 284 285
319 314 310 307 303 300 298 297 296 296 295 293 289 285 284 284 284 287 289 287 285 286 286 284 282 281 281 282 283 283 281 280 280 281 281 282 283 285
307 303 298 295 296 296 295 295 295 293 288 286 285 284 285 286 287 285 285 284 282 282 281 282 282 282 281 280 279 279 279 279 280 281 284 285 285 286
296 294 293 293 293 293 292 291 287 284 285 286 286 285 284 284 283 282 281 281 280 281 281 280 279 279 279 278 278 278 278 279 279 279 280 281 282 285
292 290 290 290 289 287 286 285 285 285 285 284 283 282 281 280 280 279 279 278 278 277 277 278 278 278 278 278 278 278 278 278 279 280 281 282 283 284
290 288 286 285 285 285 285 284 283 283 282 281 280 279 278 278 277 277 276 276 276 276 276 276 277 277 277 277 277 277 278 279 280 280 281 281 282 284
287 285 285 284 283 282 282 281 280 280 278 278 278 277 276 275 275 274 274 274 274 274 275 275 275 274 274 275 276 276 277 277 277 277 277 277 279 281
285 283 283 282 281 280 280 279 278 278 277 276 275 274 273 273 273 272 272 272 272 272 272 272 273 274 273 273 273 273 273 274 275 276 277 277 279 281
281 281 280 279 279 278 277 276 276 275 274 273 273 272 272 271 271 271 271 270 271 271 271 271 271 271 272 272 272 272 273 274 275 276 277 277 277 280
278 278 278 277 277 276 274 274 273 272 272 272 271 270 270 270 269 269 269 269 269 270 270 270 270 270 271 271 272 272 272 272 273 274 276 277 278 279
276 275 274 274 273 272 272 272 271 270 270 269 269 269 269 268 268 268 268 269 269 269 269 269 270 270 270 270 270 271 272 273 274 275 276 279 282 283

GFSNE_850_thetae_081.txt.gz
Theta_e
317 319 317 317 317 317 317 317 318 318 318 317 317 317 317 317 316 318 318 318 318 318 318 317 316 315 313 312 310 309 309 309 307 307 306 304 297 298
319 318 317 317 317 317 317 317 318 318 319 318 317 316 317 318 318 317 318 318 317 317 318 317 316 315 312 311 310 310 308 307 306 305 303 296 295 295
314 316 317 317 317 317 317 317 317 318 319 319 318 318 318 318 319 317 317 317 317 316 316 316 316 312 312 311 310 308 307 306 305 300 295 293 291 290
313 315 317 318 317 317 317 317 317 316 316 317 319 318 318 318 319 318 317 318 316 315 315 315 316 312 311 309 308 307 306 305 297 293 292 290 289 289
316 315 315 316 318 317 317 317 317 317 317 318 320 319 318 318 319 318 318 317 316 315 315 314 314 311 308 307 306 304 303 297 293 290 289 289 289 289
316 316 316 315 315 315 316 317 317 318 319 319 320 319 318 319 318 318 317 316 315 313 312 312 309 307 305 303 301 296 293 290 289 289 289 290 290 290
319 318 317 316 316 316 317 317 318 319 319 317 318 319 318 318 315 315 316 315 314 310 308 307 305 303 300 301 302 297 291 290 289 289 290 290 290 290
319 319 318 319 318 318 318 318 319 320 320 319 318 318 318 319 318 314 312 311 308 307 304 304 303 303 302 296 294 292 290 289 289 289 290 291 290 289
321 321 320 319 319 319 320 320 321 321 321 320 319 318 318 318 317 313 312 309 307 305 304 301 300 299 295 293 292 291 290 288 289 290 289 289 288 287
321 321 320 320 320 321 321 321 321 321 320 320 319 317 316 315 313 310 308 304 302 300 299 298 297 295 292 291 290 289 288 288 289 289 288 287 287 286
322 321 321 320 320 321 320 321 320 318 318 317 313 310 308 307 305 304 301 299 297 295 295 295 293 289 288 287 288 287 288 289 288 287 287 287 286 285
323 323 323 322 321 321 321 320 318 316 312 306 303 302 300 298 298 297 297 296 295 291 288 287 286 286 288 288 288 287 287 287 286 286 286 286 285 283
322 322 322 321 320 320 319 318 314 308 301 299 298 296 295 295 294 293 289 287 286 286 286 286 287 286 285 285 286 286 285 284 284 285 285 284 282 282
322 321 317 317 315 308 302 301 299 297 295 294 293 292 291 290 290 289 286 284 286 288 287 286 286 286 284 281 281 282 283 283 282 282 282 281 281 281
316 309 304 297 296 295 294 293 292 291 291 290 290 289 288 287 286 287 287 287 287 286 285 284 282 282 281 280 280 279 279 279 279 280 279 280 281 281
294 292 293 293 293 290 289 289 290 290 289 288 286 285 286 286 285 285 285 284 283 282 282 281 280 279 279 279 278 278 278 278 278 278 278 279 280 280
291 290 289 288 289 289 288 288 287 285 286 285 285 285 284 283 283 282 280 279 279 278 278 277 277 277 277 277 277 277 277 277 276 277 278 279 279 280
290 290 287 286 285 285 286 285 285 284 284 284 283 282 281 280 279 278 277 276 275 275 275 275 275 275 275 275 275 275 275 276 276 275 276 276 277 278
289 286 284 284 284 283 283 283 282 281 280 280 279 278 277 276 275 274 274 273 273 273 273 272 272 273 273 272 272 273 273 273 273 273 273 274 275 276
285 284 283 283 282 281 280 279 279 278 277 276 275 275 274 274 273 273 272 272 271 271 271 271 271 271 271 271 271 271 271 272 273 273 273 274 274 275
283 282 281 280 279 278 278 277 276 275 275 274 273 273 273 272 272 271 271 270 270 270 270 270 270 270 270 270 270 270 270 271 271 272 272 273 274 275
279 279 278 278 278 277 276 275 274 273 273 273 272 272 271 271 270 270 269 269 269 269 269 269 269 269 269 269 269 270 270 271 272 274 274 275 275 276
277 277 276 275 274 273 273 273 273 272 272 271 271 271 270 270 269 269 268 268 268 268 268 268 268 268 268 269 269 270 270 271 272 273 274 275 276 277

GFSNE_850_thetae_084.txt.gz
Theta_e
317 317 319 319 319 318 319 318 317 317 317 317 317 317 317 317 316 317 317 317 317 316 317 318 318 317 317 317 316 312 313 312 311 309 307 307 306 306
316 316 318 319 319 317 317 317 317 318 317 317 317 318 318 317 318 317 317 318 318 318 317 318 318 317 317 317 315 314 313 311 309 308 308 307 306 304
314 314 315 318 318 316 317 317 317 317 317 317 317 317 317 317 317 318 318 318 318 318 317 316 317 317 316 317 314 312 311 310 307 308 307 306 305 301
315 314 314 314 317 318 318 317 317 317 317 317 317 317 317 317 317 317 317 318 318 319 319 317 317 316 315 315 314 311 309 307 307 305 305 304 298 294
316 315 315 314 314 315 315 316 317 317 317 317 317 317 317 317 318 318 319 319 318 319 317 317 317 316 314 313 312 309 307 306 305 303 301 296 293 290
312 312 313 314 314 314 314 313 315 317 317 317 317 317 317 318 318 318 318 318 317 317 316 315 316 315 312 309 308 305 304 303 304 294 290 289 289 289
319 317 314 312 313 314 315 315 316 315 315 316 316 317 318 319 318 317 317 318 317 318 316 315 314 313 310 307 305 303 301 302 298 293 293 292 289 290
321 320 320 319 318 316 317 318 317 317 316 317 317 318 318 319 319 318 318 317 317 316 315 312 311 309 307 305 302 302 299 299 293 291 290 289 289 289
322 321 321 321 320 319 319 318 318 317 318 318 318 318 319 319 319 319 318 317 316 315 313 308 305 304 303 301 299 298 297 293 291 290 288 289 289 290
323 322 322 322 321 321 320 320 320 319 319 319 320 320 320 319 318 317 316 315 312 309 305 302 301 300 298 297 297 293 291 290 290 288 288 288 289 290
323 322 322 321 321 321 320 320 320 320 320 320 321 320 320 320 317 314 311 309 304 300 298 299 297 296 294 294 291 289 288 288 287 288 288 288 287 287
324 324 323 322 321 321 321 321 321 321 320 319 317 316 315 314 311 307 304 304 301 296 294 294 294 293 290 288 287 287 287 288 288 287 287 286 286 285
324 325 324 323 322 321 320 320 319 318 311 304 300 300 299 298 298 296 297 296 296 294 291 290 289 287 287 287 286 286 286 286 286 286 286 285 285 284
324 323 322 320 320 319 319 317 316 310 302 297 295 294 293 294 294 293 292 292 291 291 289 288 287 286 285 284 283 284 284 284 284 284 283 282 281 281
320 311 305 304 303 301 298 296 296 293 293 293 293 291 291 290 291 289 288 287 287 287 286 285 284 283 282 281 280 280 279 280 280 279 278 278 278 279
294 298 297 295 293 290 290 290 291 290 291 290 290 288 287 287 287 287 286 286 285 285 284 283 282 281 280 279 279 278 278 277 277 277 277 276 276 277
292 291 291 291 291 291 290 290 289 289 289 287 286 285 284 284 284 283 283 283 282 281 280 279 278 278 277 276 276 275 275 275 275 275 275 275 275 276
291 290 289 288 289 288 288 287 286 285 285 285 284 283 283 282 281 280 279 277 276 275 275 275 274 274 274 274 274 274 273 273 273 273 273 272 273 274
289 287 285 284 284 285 284 284 283 282 282 282 281 281 279 277 276 275 274 274 274 273 273 272 272 272 271 271 272 272 271 271 271 271 272 272 272 272
285 285 284 283 281 280 280 280 280 280 280 278 277 275 275 274 274 273 272 272 272 271 271 271 271 270 270 270 270 271 271 271 271 271 271 271 272 272
281 281 280 280 281 280 279 278 277 276 275 274 273 273 272 272 272 272 271 271 271 271 271 270 270 269 270 270 270 271 271 271 271 271 271 272 273 273
279 279 278 278 277 276 275 274 274 273 273 272 272 271 271 271 271 271 271 271 270 270 270 270 270 270 269 269 269 269 270 271 271 272 273 273 272 273
277 276 275 274 273 273 273 272 272 272 271 271 271 272 272 271 271 271 270 270 269 269 269 269 269 269 269 268 269 269 270 271 272 273 275 275 275 276

GFSNE_850_thetae_087.txt.gz
Theta_e
316 316 317 316 316 315 316 317 318 319 319 317 317 317 317 317 318 317 317 316 316 317 317 318 318 317 317 317 317 317 314 315 315 315 314 313 312 311
319 318 317 317 315 316 317 317 317 318 318 318 317 316 317 317 318 317 317 317 317 317 317 318 318 318 318 317 317 317 316 315 315 314 313 313 312 312
319 319 318 316 316 317 316 319 319 318 316 316 316 317 317 317 317 317 317 317 317 317 317 317 317 317 318 318 317 317 317 316 314 315 313 314 313 310
319 318 317 317 317 315 315 315 318 317 316 316 317 317 316 316 317 317 317 317 317 317 317 317 317 317 319 318 317 317 316 314 314 314 312 312 310 307
318 318 319 318 316 316 314 314 315 316 317 317 317 317 317 317 317 317 317 317 317 317 318 318 318 317 318 316 317 317 316 315 313 311 311 308 305 304
315 315 316 317 316 315 314 314 315 316 316 317 318 317 316 316 317 317 316 315 315 317 317 317 317 317 318 316 315 315 315 313 311 310 308 305 303 301
317 316 317 317 316 315 316 315 315 315 315 316 316 316 316 317 316 316 316 317 316 317 318 317 317 317 317 317 315 314 312 310 309 307 305 304 302 296
321 321 321 321 321 320 319 319 315 314 314 315 315 316 316 316 316 316 317 317 316 317 317 318 318 317 316 316 313 309 308 306 303 301 300 299 297 292
322 321 321 321 321 321 321 320 319 317 316 315 315 316 316 316 316 317 317 317 317 317 316 316 316 315 313 311 307 305 304 302 300 298 297 294 290 289
323 322 322 322 322 322 322 321 321 320 319 318 317 317 317 317 317 318 318 318 318 316 314 310 309 309 305 304 301 300 298 297 296 295 292 290 289 288
324 324 324 323 323 321 321 320 321 321 321 320 320 318 318 318 318 318 318 317 315 310 308 305 303 299 297 296 296 295 294 292 291 290 289 288 287 287
324 324 324 324 324 323 323 322 321 322 321 320 320 319 317 317 317 316 315 310 309 303 299 297 295 295 293 292 291 291 290 289 288 287 287 287 287 287
324 323 321 323 324 323 323 321 321 320 320 318 313 307 302 302 302 301 300 301 301 299 292 293 292 291 292 290 290 288 287 287 286 286 286 285 285 284
317 319 319 320 320 318 318 319 317 315 312 305 298 295 294 294 293 293 293 294 292 293 291 291 291 289 288 287 286 286 286 285 285 285 285 283 283 281
312 306 297 304 308 311 307 301 295 294 294 292 292 291 290 289 290 291 291 290 289 288 288 287 286 286 285 284 283 282 283 283 281 281 281 279 279 279
298 295 297 295 296 293 293 293 293 292 293 293 291 289 290 290 290 288 288 287 287 286 285 284 284 283 282 281 280 278 278 278 277 276 276 276 275 275
292 293 292 291 289 289 288 289 289 288 288 286 286 285 285 285 285 284 285 284 284 282 282 280 279 278 277 276 276 275 275 275 274 274 273 273 273 274
291 289 287 287 287 287 287 285 286 285 284 284 284 283 283 283 283 283 281 279 277 276 276 275 276 276 275 274 274 274 273 273 273 273 273 272 272 273
288 286 285 285 284 284 283 283 282 282 282 283 283 283 282 279 278 277 276 275 275 274 274 274 273 273 273 273 274 273 272 272 272 272 272 272 272 272
285 284 284 283 282 282 282 282 282 281 280 278 276 275 275 275 275 274 274 273 273 272 272 272 272 272 271 271 271 274 272 271 271 271 272 272 272 273
282 282 282 281 281 280 280 279 277 276 275 275 274 274 274 273 273 273 272 272 272 272 272 271 271 271 270 270 271 272 273 272 271 271 272 272 273 273
280 280 279 278 278 276 275 274 274 274 273 273 273 272 272 272 272 272 271 271 271 271 270 270 270 270 270 270 270 271 272 273 273 274 274 274 272 272
276 275 274 274 274 273 273 272 272 272 272 272 272 271 271 271 270 270 270 270 270 270 270 270 271 271 271 270 271 271 271 272 273 275 277 277 277 277

GFSNE_850_thetae_090.txt.gz
Theta_e
317 319 319 317 318 318 317 317 315 317 317 317 318 318 317 317 317 317 317 317 317 317 317 317 316 317 317 317 318 318 318 317 317 317 316 316 315 316
319 320 319 318 317 317 316 316 315 315 316 316 316 317 318 318 317 317 317 317 317 318 317 317 317 317 317 317 317 318 318 318 317 317 317 316 315 316
320 319 318 318 317 316 316 317 316 316 316 316 317 317 317 317 317 317 317 317 316 317 317 317 317 317 317 317 317 317 317 318 318 317 316 316 315 315
319 320 320 318 319 319 318 318 317 315 316 316 315 317 318 317 317 316 316 317 317 316 317 317 317 317 317 317 317 317 317 318 318 317 316 317 314 314
319 319 319 319 319 319 318 318 318 316 316 316 315 315 315 315 316 316 316 317 317 316 315 315 316 316 316 317 318 318 318 318 316 316 317 316 315 313
317 317 318 318 318 318 318 318 318 318 318 317 316 316 315 315 316 316 316 315 315 314 315 315 316 317 316 317 317 317 318 317 317 316 315 314 314 311
320 319 318 317 316 317 317 316 316 317 317 317 316 315 315 315 315 314 315 314 315 316 317 317 317 317 317 317 318 317 317 318 317 316 314 313 311 311
319 319 319 320 320 320 320 320 318 317 317 316 316 316 315 315 315 315 315 315 315 315 315 316 316 316 316 317 317 317 318 316 316 313 312 310 308 306
321 321 321 321 320 320 320 320 320 320 319 317 316 316 316 316 316 316 316 316 316 316 316 316 316 316 316 315 315 316 316 311 306 306 305 303 301 300
324 324 323 323 323 323 322 321 320 320 320 319 319 319 317 315 315 315 315 315 316 316 316 316 316 315 313 310 307 302 303 302 300 296 296 295 295 294
324 324 324 324 324 323 323 324 323 323 321 320 319 319 319 319 317 315 315 315 315 314 314 311 307 302 298 296 295 293 294 293 293 291 290 290 290 290
322 322 320 319 321 321 319 321 321 322 322 320 319 317 316 315 314 314 315 311 309 307 303 299 298 297 292 290 290 291 291 290 290 290 289 289 288 288
316 316 317 318 319 319 320 318 316 315 315 314 308 299 301 301 301 301 304 302 302 300 296 294 293 291 292 288 288 289 289 289 288 288 287 287 286 286
312 310 309 310 312 313 310 311 312 308 308 302 298 297 294 293 294 295 295 295 295 294 290 291 292 291 291 289 287 286 286 285 286 285 285 285 285 284
303 300 299 299 300 300 301 300 299 297 296 295 292 291 290 289 289 289 290 289 289 287 287 288 288 287 287 286 285 284 285 284 284 284 282 281 279 278
294 294 294 294 293 292 291 292 291 292 292 289 287 285 285 286 286 286 287 287 288 287 286 285 285 285 285 283 282 280 278 277 277 276 276 276 276 276
291 291 290 290 289 289 288 287 287 287 286 285 285 285 285 285 285 284 284 284 284 283 281 279 277 277 277 277 276 276 275 274 274 274 275 275 275 275
290 288 287 287 287 286 286 285 285 284 284 284 285 285 284 284 284 283 280 278 278 276 276 276 276 276 275 275 275 274 273 274 274 274 274 274 274 275
288 286 285 284 284 284 285 284 283 283 282 283 283 282 280 278 276 276 275 275 275 275 274 274 274 275 275 275 274 273 273 273 273 274 274 274 274 275
285 284 283 282 282 282 282 282 282 281 279 277 276 276 276 275 275 275 275 275 274 274 273 273 273 273 272 272 273 274 272 272 273 274 274 275 275 276
282 282 281 281 280 279 278 276 276 275 275 275 274 274 274 274 274 274 273 273 273 272 272 272 272 272 271 272 272 274 275 273 273 273 274 274 276 277
278 277 276 275 275 275 274 274 274 274 273 273 273 273 273 272 273 272 272 272 272 272 271 271 271 272 272 272 272 272 274 275 275 276 276 275 275 275
274 274 274 274 273 273 273 273 272 272 272 272 272 272 272 272 272 272 271 271 271 271 271 271 271 271 271 271 271 272 273 274 276 277 279 278 278 279

GFSNE_850_thetae_093.txt.gz
Theta_e
311 316 317 316 315 319 318 318 318 317 317 316 315 315 316 316 317 316 316 316 316 317 317 317 316 317 317 317 316 316 317 317 318 318 318 318 318 317
316 313 313 314 315 318 318 318 318 317 317 316 315 315 315 315 316 317 317 317 317 317 317 317 317 317 317 317 317 317 317 317 317 317 317 318 318 318
316 317 317 315 316 319 319 318 317 317 317 316 316 315 316 315 315 316 317 318 317 317 317 317 317 317 316 317 317 317 317 317 317 317 317 317 317 318
316 315 316 317 317 319 319 319 318 317 316 316 316 316 316 315 315 316 316 316 316 317 316 316 316 317 316 316 315 316 317 317 317 317 317 317 317 318
322 321 319 320 320 319 320 320 318 317 317 316 317 318 317 316 315 315 315 315 315 315 315 314 314 314 315 316 316 314 316 316 316 317 318 318 318 318
319 319 318 317 318 319 319 319 319 319 319 318 318 318 318 318 318 317 317 316 316 314 314 314 313 313 314 315 316 316 316 316 316 316 317 318 318 318
320 320 320 320 320 319 318 318 319 318 318 318 318 318 318 317 317 317 317 316 315 316 315 316 317 317 316 317 318 318 317 316 316 317 318 317 316 317
319 319 319 319 319 319 319 320 319 319 318 317 317 317 317 317 317 317 317 317 317 317 317 317 317 318 317 317 317 316 316 316 315 316 317 317 317 316
322 322 322 322 322 322 322 321 321 320 320 319 318 318 317 317 318 317 317 316 316 317 316 316 316 315 315 316 316 316 316 315 315 315 314 311 308 306
322 322 322 322 322 322 323 322 322 323 323 322 320 319 317 316 316 316 316 316 316 315 315 315 315 314 313 312 312 313 313 312 312 309 304 303 301 300
320 319 319 320 320 321 319 319 319 320 319 320 318 317 316 316 316 316 315 314 314 313 312 312 309 306 302 300 298 295 296 297 296 295 294 293 292 291
317 316 316 317 317 318 318 318 318 315 314 314 315 313 312 311 311 310 309 308 308 306 303 301 299 297 293 290 290 291 291 291 291 291 291 291 291 291
313 314 313 313 314 314 315 316 315 313 311 309 308 307 305 304 302 303 302 302 303 300 299 297 294 293 292 288 287 288 289 289 289 289 288 288 288 287
305 304 303 302 303 305 306 307 307 307 304 302 299 297 296 295 293 294 294 295 294 293 291 291 291 290 289 286 285 285 285 286 286 287 287 287 286 286
296 296 295 295 296 297 294 295 296 296 296 295 293 292 290 289 288 288 288 288 289 289 288 288 288 287 288 287 286 284 284 285 285 285 283 281 280 279
292 292 292 292 292 291 291 291 291 290 290 290 288 287 287 288 288 288 288 287 288 287 287 287 286 285 285 285 284 282 280 278 277 277 277 277 277 277
290 290 290 289 289 288 288 287 287 286 287 286 286 286 286 286 286 285 285 285 284 281 280 279 279 279 278 278 277 276 275 275 276 276 276 276 277 277
289 289 287 287 286 286 286 286 286 285 285 285 284 284 285 284 283 281 278 278 277 276 276 276 275 275 276 276 275 275 275 276 276 276 275 275 277 277
289 287 286 285 284 284 283 283 283 282 281 281 279 278 277 276 276 276 276 276 275 275 275 275 275 275 274 274 274 274 274 275 275 275 275 275 276 277
286 285 284 283 282 282 281 280 278 277 276 276 276 276 275 275 275 274 274 274 273 273 273 273 274 274 273 273 273 274 274 274 274 275 275 277 278 278
283 282 280 278 276 276 275 275 274 274 274 274 274 274 274 274 274 273 273 273 273 272 272 272 272 273 273 273 273 274 274 274 275 276 276 278 278 280
276 275 275 275 274 274 273 273 273 273 273 273 273 273 273 273 273 272 272 272 272 272 272 272 272 272 272 272 273 274 275 276 277 277 278 278 278 277
274 273 273 273 273 273 273 273 272 272 272 272 272 272 272 272 272 272 272 271 271 271 271 272 272 272 272 272 272 272 274 276 277 278 278 278 279 279

GFSNE_850_thetae_096.txt.gz
Theta_e
314 317 319 320 320 320 321 318 316 318 317 318 318 316 315 315 315 316 316 316 316 316 316 316 317 317 317 317 317 317 317 317 317 317 317 317 317 318
312 314 319 319 319 319 318 318 317 319 319 318 318 319 318 317 316 315 315 315 317 317 316 316 317 317 317 317 317 317 317 317 317 317 317 317 317 317
311 314 313 316 314 318 317 315 314 315 318 318 318 317 317 319 318 317 316 315 315 315 316 316 317 317 317 317 317 317 317 317 316 316 316 317 317 317
316 311 311 310 316 315 314 314 314 315 317 318 317 318 317 317 316 316 316 317 317 317 315 316 316 316 315 316 316 315 316 316 316 316 316 315 317 317
317 313 314 313 314 316 317 317 316 316 317 319 319 319 318 319 319 319 319 320 319 317 316 316 316 315 315 315 314 314 314 314 315 316 316 316 316 316
316 315 318 317 316 319 318 318 321 321 321 320 320 320 320 320 320 320 320 320 319 319 318 318 318 317 317 317 316 316 316 315 314 314 315 315 315 316
321 321 320 320 320 319 320 321 321 321 321 321 321 320 320 320 320 320 320 320 319 319 319 319 319 319 319 319 319 318 318 318 318 317 317 317 316 316
319 320 320 320 320 320 320 320 320 320 320 321 321 321 320 320 320 320 320 319 318 319 318 318 319 319 319 318 318 318 317 317 317 317 316 316 316 316
320 321 321 321 321 321 321 322 321 321 320 319 319 320 320 320 319 319 319 319 318 318 318 318 318 317 317 317 318 317 317 316 316 316 316 316 316 315
320 319 319 320 319 320 319 320 321 321 319 318 318 317 317 318 317 317 317 317 316 316 316 316 315 314 315 314 312 313 314 314 314 312 310 309 307 304
320 320 320 319 319 319 319 318 318 317 317 317 317 316 316 316 316 315 314 313 313 313 311 310 311 310 305 302 303 301 299 298 298 298 297 296 294 294
317 316 316 316 316 317 317 316 316 315 313 312 313 313 312 311 310 309 308 308 306 304 304 302 302 301 299 296 294 293 291 291 291 291 291 291 291 291
309 309 308 308 310 310 311 310 310 310 309 307 305 303 301 300 300 300 299 300 300 299 298 297 295 293 291 289 288 288 288 289 289 289 289 289 289 289
301 301 300 300 300 301 302 300 299 299 299 298 297 296 295 294 293 293 293 293 293 293 291 291 291 290 290 288 287 287 287 287 287 288 288 288 288 287
296 295 294 294 294 294 293 294 295 294 293 293 292 291 290 289 289 289 289 289 289 289 289 289 289 288 287 285 284 284 283 286 286 286 286 285 283 281
291 291 291 291 291 291 291 291 290 290 290 289 287 287 287 287 287 287 287 287 287 287 287 287 287 287 286 286 283 283 282 280 278 277 278 278 278 278
289 290 290 289 289 289 288 288 288 287 287 286 285 284 284 284 285 284 283 282 281 279 278 278 279 279 280 279 278 277 277 277 277 277 278 278 278 278
290 289 288 287 287 286 285 286 286 286 285 284 283 282 281 280 279 279 278 278 278 277 277 277 277 278 278 277 276 276 276 276 276 277 277 277 278 278
288 286 284 283 282 281 281 281 281 281 280 279 278 278 277 277 277 278 277 277 277 276 276 275 276 277 279 279 276 276 276 275 276 277 277 277 278 278
282 280 279 278 277 277 277 277 276 276 276 276 276 276 276 276 276 276 276 276 276 275 275 275 274 275 275 275 275 276 275 275 275 277 277 277 277 279
278 277 276 275 275 275 275 275 275 275 275 275 274 274 274 274 274 274 274 274 274 274 274 274 273 275 274 274 276 276 275 275 276 277 278 278 278 279
275 275 274 275 274 274 274 274 274 274 273 273 273 273 273 273 273 273 273 273 273 273 273 273 273 273 273 274 274 275 276 275 276 276 277 277 277 278
274 274 274 274 273 273 273 273 273 273 273 272 272 272 272 271 271 272 272 272 272 272 272 273 273 273 274 273 274 275 276 276 276 277 278 278 279 280

GFSNE_850_thetae_099.txt.gz
Theta_e
317 318 315 319 319 321 322 320 320 318 317 318 320 320 318 319 318 316 316 316 316 316 316 316 316 316 316 316 317 317 317 317 317 317 317 317 317 317
318 320 316 317 317 319 320 321 322 320 319 317 318 319 320 319 318 317 316 315 315 315 315 315 316 316 316 316 316 317 316 317 317 317 317 317 317 317
319 319 317 318 318 317 317 319 319 319 318 318 318 318 319 320 320 319 319 319 317 317 317 316 315 315 316 317 317 317 317 317 317 317 317 317 317 317
321 321 319 316 315 318 320 319 318 317 317 317 316 314 314 315 316 317 317 317 319 319 317 316 316 317 316 315 316 316 316 315 315 316 316 315 315 316
323 322 318 317 312 313 316 316 316 316 315 315 315 315 314 315 316 319 320 319 319 319 318 317 318 317 317 316 316 316 315 315 316 315 315 315 315 315
321 320 319 319 316 315 315 312 315 315 316 317 317 318 319 320 321 321 321 321 321 321 321 321 320 320 320 320 320 320 319 319 318 317 317 316 316 316
321 321 320 319 315 313 314 316 316 317 321 320 320 322 322 322 322 322 322 322 322 322 321 321 322 321 322 321 320 320 320 320 320 319 318 318 318 317
322 321 321 321 321 320 320 320 320 320 320 320 321 321 321 322 322 322 322 322 322 321 321 321 320 320 319 319 319 319 319 319 319 318 318 318 317 317
321 321 321 322 322 322 322 321 321 321 320 320 319 319 319 320 320 320 321 320 320 320 319 319 319 319 319 318 319 319 319 319 318 316 317 317 314 312
320 321 322 322 322 321 321 320 320 320 319 319 318 318 318 318 318 317 317 317 317 316 314 312 312 313 313 314 313 313 314 313 311 310 309 309 309 306
318 319 319 319 318 319 319 318 317 316 316 316 315 315 314 314 314 313 312 311 310 308 307 307 306 305 306 303 303 302 299 298 300 298 297 298 297 296
313 313 313 313 313 315 316 315 313 313 312 311 310 309 307 306 305 305 305 305 304 302 302 300 301 299 298 297 297 295 293 292 292 291 291 291 291 290
308 307 306 307 308 308 308 309 308 307 305 304 302 301 300 299 298 298 298 298 298 298 298 296 295 294 293 292 291 291 291 290 290 290 290 290 290 289
302 301 300 299 300 300 301 299 298 298 298 297 296 295 295 294 292 292 292 292 292 292 292 292 291 290 289 288 287 287 287 287 287 287 288 288 288 288
296 294 294 294 294 294 293 295 295 295 294 294 292 291 290 290 290 290 289 289 289 289 289 289 289 288 286 286 285 284 284 283 282 282 284 281 280 280
291 291 291 291 292 291 291 291 290 290 290 289 288 288 288 288 289 288 288 287 285 285 287 287 288 287 285 284 283 283 280 280 279 279 279 279 279 279
289 288 288 287 287 287 288 287 287 287 287 286 285 284 284 283 283 283 283 282 282 281 280 280 280 279 279 279 280 279 279 279 279 278 279 279 279 280
286 285 284 284 283 283 283 282 283 283 282 281 281 281 281 280 281 280 280 280 280 279 279 278 279 281 281 281 279 277 277 277 278 278 279 279 279 280
286 283 282 281 281 280 280 280 279 279 279 279 279 279 279 279 279 279 279 279 279 278 278 277 277 278 280 281 279 278 277 276 277 277 277 278 278 280
281 279 279 279 279 278 277 277 277 277 277 277 277 277 277 278 278 277 276 277 277 277 277 276 275 275 276 276 276 278 277 277 276 277 278 278 279 280
278 277 277 277 276 276 276 276 275 275 275 275 275 275 275 276 276 276 276 276 276 276 276 276 275 275 275 276 277 277 277 277 277 277 278 279 278 280
276 275 275 274 274 274 274 274 274 274 274 274 274 273 274 274 275 275 274 275 275 275 275 275 275 275 276 276 276 276 278 277 277 278 278 279 278 278
273 273 272 272 272 272 272 272 272 272 272 272 272 272 273 273 273 273 274 274 274 274 274 275 275 276 276 276 276 277 278 277 277 278 279 279 280 280